Wetterdaten: Sonntag, 26.07.2020
Datum Zeit Temp. Aussen Temp. o. S. Temp +5cm Feuchte Auss Luftdruck Regen Sonnenschein Regendauer Solar Windben Empfang
26.07.2020 00:00 21,7 C 20,0 C 19,4 C 74 % 1007,4 hPa 0,0 l/m 0 min 0 min 0 W/m 0,0 km/h (0 Bft) 97,87 %
26.07.2020 00:02 21,7 C 20,0 C 19,4 C 74 % 1007,5 hPa 0,0 l/m 0 min 0 min 0 W/m 3,2 km/h (1 Bft) 97,78 %
26.07.2020 00:04 21,7 C 20,0 C 19,4 C 74 % 1007,3 hPa 0,0 l/m 0 min 0 min 0 W/m 0,0 km/h (0 Bft) 95,74 %
26.07.2020 00:07 21,6 C 20,0 C 19,4 C 75 % 1007,4 hPa 0,0 l/m 0 min 0 min 0 W/m 0,0 km/h (0 Bft) 97,18 %
26.07.2020 00:08 21,6 C 20,0 C 19,4 C 75 % 1007,4 hPa 0,0 l/m 0 min 0 min 0 W/m 0,0 km/h (0 Bft) 95,65 %
26.07.2020 00:10 21,6 C 20,0 C 19,4 C 75 % 1007,4 hPa 0,0 l/m 0 min 0 min 0 W/m 0,0 km/h (0 Bft) 97,87 %
26.07.2020 00:12 21,6 C 20,0 C 19,4 C 75 % 1007,5 hPa 0,0 l/m 0 min 0 min 0 W/m 3,2 km/h (1 Bft) 95,74 %
26.07.2020 00:14 21,6 C 20,6 C 19,4 C 74 % 1007,6 hPa 0,0 l/m 0 min 0 min 0 W/m 6,4 km/h (2 Bft) 97,83 %
26.07.2020 00:16 21,6 C 20,6 C 19,4 C 74 % 1007,7 hPa 0,0 l/m 0 min 0 min 0 W/m 3,2 km/h (1 Bft) 97,87 %
26.07.2020 00:18 21,6 C 20,6 C 19,4 C 74 % 1007,8 hPa 0,0 l/m 0 min 2 min 0 W/m 6,4 km/h (2 Bft) 95,74 %
26.07.2020 00:20 21,6 C 17,2 C 17,2 C 76 % 1008,0 hPa 0,2 l/m 0 min 2 min 0 W/m 16,1 km/h (3 Bft) 97,87 %
26.07.2020 00:22 21,6 C 16,7 C 16,7 C 78 % 1008,0 hPa 0,6 l/m 0 min 2 min 0 W/m 12,9 km/h (3 Bft) 100,00 %
26.07.2020 00:24 21,5 C 16,7 C 16,7 C 80 % 1007,9 hPa 0,0 l/m 0 min 2 min 0 W/m 32,2 km/h (5 Bft) 100,00 %
26.07.2020 00:26 21,4 C 16,7 C 16,7 C 80 % 1007,8 hPa 0,2 l/m 0 min 2 min 0 W/m 9,7 km/h (2 Bft) 100,00 %
26.07.2020 00:28 21,4 C 16,7 C 16,7 C 81 % 1007,7 hPa 0,0 l/m 0 min 2 min 0 W/m 12,9 km/h (3 Bft) 97,87 %
26.07.2020 00:30 21,3 C 16,7 C 16,7 C 81 % 1007,6 hPa 0,0 l/m 0 min 2 min 0 W/m 6,4 km/h (2 Bft) 100,00 %
26.07.2020 00:32 21,3 C 16,7 C 16,7 C 81 % 1007,5 hPa 0,0 l/m 0 min 0 min 0 W/m 3,2 km/h (1 Bft) 100,00 %
26.07.2020 00:34 21,2 C 16,7 C 16,7 C 81 % 1007,5 hPa 0,0 l/m 0 min 0 min 0 W/m 0,0 km/h (0 Bft) 100,00 %
26.07.2020 00:36 21,2 C 16,7 C 16,7 C 82 % 1007,5 hPa 0,0 l/m 0 min 0 min 0 W/m 0,0 km/h (0 Bft) 97,83 %
26.07.2020 00:38 21,1 C 16,7 C 16,7 C 82 % 1007,5 hPa 0,0 l/m 0 min 2 min 0 W/m 0,0 km/h (0 Bft) 100,00 %
26.07.2020 00:40 21,1 C 16,7 C 16,7 C 82 % 1007,6 hPa 0,0 l/m 0 min 2 min 0 W/m 0,0 km/h (0 Bft) 100,00 %
26.07.2020 00:42 21,1 C 16,7 C 16,7 C 83 % 1007,6 hPa 0,0 l/m 0 min 2 min 0 W/m 3,2 km/h (1 Bft) 97,87 %
26.07.2020 00:44 20,9 C 16,7 C 16,7 C 83 % 1007,7 hPa 0,0 l/m 0 min 2 min 0 W/m 3,2 km/h (1 Bft) 100,00 %
26.07.2020 00:46 20,9 C 16,7 C 16,7 C 83 % 1007,7 hPa 0,0 l/m 0 min 2 min 0 W/m 6,4 km/h (2 Bft) 100,00 %
26.07.2020 00:48 20,7 C 16,7 C 16,7 C 84 % 1007,8 hPa 0,0 l/m 0 min 2 min 0 W/m 16,1 km/h (3 Bft) 100,00 %
26.07.2020 00:50 20,6 C 16,7 C 16,7 C 85 % 1007,9 hPa 0,0 l/m 0 min 2 min 0 W/m 9,7 km/h (2 Bft) 100,00 %
26.07.2020 00:52 20,5 C 16,7 C 16,7 C 85 % 1007,9 hPa 0,0 l/m 0 min 2 min 0 W/m 6,4 km/h (2 Bft) 100,00 %
26.07.2020 00:54 20,4 C 16,7 C 16,7 C 86 % 1007,9 hPa 0,0 l/m 0 min 2 min 0 W/m 6,4 km/h (2 Bft) 100,00 %
26.07.2020 00:56 20,3 C 16,7 C 16,7 C 86 % 1008,1 hPa 0,0 l/m 0 min 2 min 0 W/m 3,2 km/h (1 Bft) 97,87 %
26.07.2020 00:58 20,2 C 16,7 C 16,7 C 86 % 1008,6 hPa 0,0 l/m 0 min 2 min 0 W/m 6,4 km/h (2 Bft) 97,87 %
26.07.2020 01:00 20,1 C 16,7 C 16,7 C 87 % 1008,5 hPa 0,6 l/m 0 min 2 min 0 W/m 6,4 km/h (2 Bft) 100,00 %
26.07.2020 01:02 20,1 C 16,7 C 16,7 C 87 % 1007,9 hPa 0,8 l/m 0 min 2 min 0 W/m 6,4 km/h (2 Bft) 97,92 %
26.07.2020 01:04 19,9 C 16,7 C 16,7 C 88 % 1007,9 hPa 0,2 l/m 0 min 2 min 0 W/m 3,2 km/h (1 Bft) 95,74 %
26.07.2020 01:06 19,9 C 16,7 C 16,7 C 89 % 1007,9 hPa 0,2 l/m 0 min 2 min 0 W/m 3,2 km/h (1 Bft) 97,87 %
26.07.2020 01:08 19,8 C 16,7 C 16,7 C 89 % 1007,9 hPa 0,0 l/m 0 min 2 min 0 W/m 6,4 km/h (2 Bft) 100,00 %
26.07.2020 01:10 19,7 C 16,7 C 16,7 C 89 % 1007,9 hPa 0,0 l/m 0 min 2 min 0 W/m 0,0 km/h (0 Bft) 95,65 %
26.07.2020 01:12 19,6 C 16,7 C 16,7 C 90 % 1008,0 hPa 0,2 l/m 0 min 2 min 0 W/m 3,2 km/h (1 Bft) 100,00 %
26.07.2020 01:14 19,6 C 16,7 C 16,7 C 90 % 1008,1 hPa 0,0 l/m 0 min 2 min 0 W/m 0,0 km/h (0 Bft) 97,87 %
26.07.2020 01:16 19,5 C 16,7 C 16,7 C 90 % 1008,1 hPa 0,0 l/m 0 min 2 min 0 W/m 0,0 km/h (0 Bft) 95,74 %
26.07.2020 01:18 19,4 C 16,7 C 16,7 C 90 % 1007,9 hPa 0,0 l/m 0 min 2 min 0 W/m 3,2 km/h (1 Bft) 97,87 %
26.07.2020 01:20 19,4 C 16,7 C 16,7 C 90 % 1007,9 hPa 0,0 l/m 0 min 2 min 0 W/m 3,2 km/h (1 Bft) 97,87 %
26.07.2020 01:22 19,3 C 16,7 C 16,7 C 91 % 1007,9 hPa 0,0 l/m 0 min 2 min 0 W/m 0,0 km/h (0 Bft) 95,65 %
26.07.2020 01:24 19,3 C 16,7 C 16,7 C 91 % 1007,8 hPa 0,0 l/m 0 min 2 min 0 W/m 0,0 km/h (0 Bft) 97,87 %
26.07.2020 01:26 19,2 C 16,7 C 16,7 C 91 % 1007,8 hPa 0,0 l/m 0 min 2 min 0 W/m 3,2 km/h (1 Bft) 95,74 %
26.07.2020 01:28 19,2 C 16,7 C 16,7 C 91 % 1007,7 hPa 0,0 l/m 0 min 2 min 0 W/m 0,0 km/h (0 Bft) 95,74 %
26.07.2020 01:30 19,2 C 16,7 C 16,7 C 91 % 1007,7 hPa 0,0 l/m 0 min 0 min 0 W/m 0,0 km/h (0 Bft) 97,87 %
26.07.2020 01:32 19,1 C 16,7 C 16,7 C 91 % 1007,7 hPa 0,0 l/m 0 min 2 min 0 W/m 0,0 km/h (0 Bft) 97,87 %
26.07.2020 01:34 19,1 C 16,7 C 16,7 C 91 % 1007,7 hPa 0,0 l/m 0 min 2 min 0 W/m 0,0 km/h (0 Bft) 97,83 %
26.07.2020 01:36 19,1 C 16,7 C 16,7 C 92 % 1007,8 hPa 0,2 l/m 0 min 2 min 0 W/m 3,2 km/h (1 Bft) 97,87 %
26.07.2020 01:38 19,0 C 16,7 C 16,7 C 92 % 1007,8 hPa 0,0 l/m 0 min 2 min 0 W/m 0,0 km/h (0 Bft) 93,62 %
26.07.2020 01:40 19,0 C 16,7 C 16,7 C 92 % 1007,8 hPa 0,0 l/m 0 min 2 min 0 W/m 0,0 km/h (0 Bft) 93,62 %
26.07.2020 01:42 18,9 C 16,7 C 16,7 C 92 % 1007,7 hPa 0,2 l/m 0 min 2 min 0 W/m 0,0 km/h (0 Bft) 95,74 %
26.07.2020 01:44 18,9 C 16,7 C 16,7 C 92 % 1007,7 hPa 0,0 l/m 0 min 2 min 0 W/m 0,0 km/h (0 Bft) 93,62 %
26.07.2020 01:46 18,9 C 16,7 C 16,7 C 92 % 1007,7 hPa 0,2 l/m 0 min 2 min 0 W/m 0,0 km/h (0 Bft) 95,65 %
26.07.2020 01:48 18,8 C 16,7 C 16,7 C 92 % 1007,7 hPa 0,0 l/m 0 min 2 min 0 W/m 0,0 km/h (0 Bft) 95,74 %
26.07.2020 01:50 18,8 C 16,7 C 16,7 C 92 % 1007,7 hPa 0,0 l/m 0 min 2 min 0 W/m 3,2 km/h (1 Bft) 95,74 %
26.07.2020 01:52 18,8 C 16,7 C 16,7 C 93 % 1007,7 hPa 0,0 l/m 0 min 2 min 0 W/m 3,2 km/h (1 Bft) 93,62 %
26.07.2020 01:54 18,8 C 16,7 C 16,7 C 93 % 1007,7 hPa 0,0 l/m 0 min 2 min 0 W/m 0,0 km/h (0 Bft) 95,74 %
26.07.2020 01:56 18,7 C 16,7 C 16,7 C 93 % 1007,7 hPa 0,0 l/m 0 min 2 min 0 W/m 3,2 km/h (1 Bft) 95,74 %
26.07.2020 01:58 18,7 C 16,7 C 16,7 C 93 % 1007,7 hPa 0,0 l/m 0 min 2 min 0 W/m 0,0 km/h (0 Bft) 93,02 %
26.07.2020 02:00 18,7 C 16,7 C 16,7 C 93 % 1007,6 hPa 0,0 l/m 0 min 0 min 0 W/m 0,0 km/h (0 Bft) 95,74 %
26.07.2020 02:02 18,7 C 16,7 C 16,7 C 93 % 1007,5 hPa 0,0 l/m 0 min 2 min 0 W/m 0,0 km/h (0 Bft) 95,74 %
26.07.2020 02:04 18,7 C 16,7 C 16,7 C 94 % 1007,5 hPa 0,0 l/m 0 min 2 min 0 W/m 3,2 km/h (1 Bft) 97,87 %
26.07.2020 02:06 18,7 C 16,7 C 16,7 C 94 % 1007,6 hPa 0,0 l/m 0 min 0 min 0 W/m 0,0 km/h (0 Bft) 97,87 %
26.07.2020 02:08 18,6 C 16,7 C 16,7 C 94 % 1007,6 hPa 0,0 l/m 0 min 0 min 0 W/m 0,0 km/h (0 Bft) 97,87 %
26.07.2020 02:10 18,6 C 16,7 C 16,7 C 94 % 1007,6 hPa 0,0 l/m 0 min 0 min 0 W/m 0,0 km/h (0 Bft) 97,83 %
26.07.2020 02:12 18,6 C 16,7 C 16,7 C 94 % 1007,7 hPa 0,0 l/m 0 min 0 min 0 W/m 0,0 km/h (0 Bft) 97,87 %
26.07.2020 02:14 18,6 C 16,7 C 16,7 C 94 % 1007,7 hPa 0,0 l/m 0 min 0 min 0 W/m 0,0 km/h (0 Bft) 97,87 %
26.07.2020 02:16 18,6 C 16,7 C 16,7 C 94 % 1007,7 hPa 0,0 l/m 0 min 0 min 0 W/m 3,2 km/h (1 Bft) 95,74 %
26.07.2020 02:18 18,6 C 16,7 C 16,7 C 94 % 1007,7 hPa 0,0 l/m 0 min 0 min 0 W/m 0,0 km/h (0 Bft) 95,74 %
26.07.2020 02:20 18,6 C 16,7 C 16,7 C 94 % 1007,8 hPa 0,0 l/m 0 min 0 min 0 W/m 3,2 km/h (1 Bft) 97,87 %
26.07.2020 02:22 18,6 C 16,7 C 16,7 C 94 % 1007,7 hPa 0,0 l/m 0 min 0 min 0 W/m 0,0 km/h (0 Bft) 97,83 %
26.07.2020 02:24 18,5 C 16,7 C 16,7 C 94 % 1007,7 hPa 0,0 l/m 0 min 2 min 0 W/m 3,2 km/h (1 Bft) 100,00 %
26.07.2020 02:26 18,5 C 16,7 C 16,7 C 95 % 1007,7 hPa 0,0 l/m 0 min 2 min 0 W/m 3,2 km/h (1 Bft) 100,00 %
26.07.2020 02:28 18,5 C 16,7 C 16,7 C 95 % 1007,7 hPa 0,0 l/m 0 min 0 min 0 W/m 0,0 km/h (0 Bft) 100,00 %
26.07.2020 02:30 18,5 C 16,7 C 16,7 C 95 % 1007,7 hPa 0,0 l/m 0 min 0 min 0 W/m 0,0 km/h (0 Bft) 100,00 %
26.07.2020 02:32 18,5 C 16,7 C 16,7 C 95 % 1007,7 hPa 0,0 l/m 0 min 2 min 0 W/m 0,0 km/h (0 Bft) 97,87 %
26.07.2020 02:34 18,4 C 16,7 C 16,7 C 95 % 1007,7 hPa 0,0 l/m 0 min 0 min 0 W/m 3,2 km/h (1 Bft) 100,00 %
26.07.2020 02:36 18,4 C 16,7 C 16,7 C 95 % 1007,7 hPa 0,0 l/m 0 min 0 min 0 W/m 3,2 km/h (1 Bft) 100,00 %
26.07.2020 02:38 18,4 C 16,7 C 16,7 C 95 % 1007,7 hPa 0,0 l/m 0 min 0 min 0 W/m 0,0 km/h (0 Bft) 100,00 %
26.07.2020 02:40 18,4 C 16,7 C 16,7 C 95 % 1007,7 hPa 0,0 l/m 0 min 0 min 0 W/m 3,2 km/h (1 Bft) 97,87 %
26.07.2020 02:42 18,4 C 16,7 C 16,7 C 95 % 1007,6 hPa 0,0 l/m 0 min 0 min 0 W/m 3,2 km/h (1 Bft) 97,92 %
26.07.2020 02:44 18,4 C 16,7 C 16,7 C 95 % 1007,6 hPa 0,0 l/m 0 min 0 min 0 W/m 3,2 km/h (1 Bft) 100,00 %
26.07.2020 02:46 18,4 C 16,7 C 16,7 C 96 % 1007,6 hPa 0,0 l/m 0 min 2 min 0 W/m 3,2 km/h (1 Bft) 100,00 %
26.07.2020 02:48 18,4 C 16,7 C 16,7 C 96 % 1007,6 hPa 0,0 l/m 0 min 2 min 0 W/m 3,2 km/h (1 Bft) 100,00 %
26.07.2020 02:50 18,4 C 16,7 C 16,7 C 96 % 1007,6 hPa 0,0 l/m 0 min 0 min 0 W/m 3,2 km/h (1 Bft) 97,87 %
26.07.2020 02:52 18,4 C 16,7 C 16,7 C 96 % 1007,5 hPa 0,2 l/m 0 min 0 min 0 W/m 3,2 km/h (1 Bft) 97,87 %
26.07.2020 02:54 18,4 C 16,7 C 16,7 C 96 % 1007,5 hPa 0,0 l/m 0 min 0 min 0 W/m 0,0 km/h (0 Bft) 100,00 %
26.07.2020 02:56 18,4 C 16,7 C 16,7 C 96 % 1007,5 hPa 0,0 l/m 0 min 0 min 0 W/m 3,2 km/h (1 Bft) 100,00 %
26.07.2020 02:58 18,4 C 16,7 C 16,7 C 96 % 1007,5 hPa 0,0 l/m 0 min 0 min 0 W/m 3,2 km/h (1 Bft) 100,00 %
26.07.2020 03:00 18,3 C 16,7 C 16,7 C 96 % 1007,5 hPa 0,0 l/m 0 min 0 min 0 W/m 3,2 km/h (1 Bft) 97,87 %
26.07.2020 03:02 18,3 C 16,7 C 16,7 C 96 % 1007,5 hPa 0,0 l/m 0 min 0 min 0 W/m 3,2 km/h (1 Bft) 95,74 %
26.07.2020 03:04 18,3 C 16,7 C 16,7 C 96 % 1007,5 hPa 0,0 l/m 0 min 0 min 0 W/m 0,0 km/h (0 Bft) 97,87 %
26.07.2020 03:06 18,3 C 16,7 C 16,7 C 96 % 1007,5 hPa 0,0 l/m 0 min 0 min 0 W/m 3,2 km/h (1 Bft) 97,87 %
26.07.2020 03:08 18,3 C 16,7 C 16,7 C 96 % 1007,5 hPa 0,0 l/m 0 min 0 min 0 W/m 6,4 km/h (2 Bft) 95,65 %
26.07.2020 03:10 18,3 C 16,7 C 16,7 C 96 % 1007,5 hPa 0,0 l/m 0 min 0 min 0 W/m 3,2 km/h (1 Bft) 97,87 %
26.07.2020 03:12 18,3 C 16,7 C 16,7 C 96 % 1007,5 hPa 0,0 l/m 0 min 0 min 0 W/m 3,2 km/h (1 Bft) 93,62 %
26.07.2020 03:14 18,3 C 16,7 C 16,7 C 96 % 1007,4 hPa 0,0 l/m 0 min 0 min 0 W/m 3,2 km/h (1 Bft) 95,74 %
26.07.2020 03:16 18,3 C 16,7 C 16,7 C 96 % 1007,4 hPa 0,0 l/m 0 min 0 min 0 W/m 6,4 km/h (2 Bft) 97,87 %
26.07.2020 03:18 18,3 C 16,7 C 16,7 C 96 % 1007,4 hPa 0,0 l/m 0 min 0 min 0 W/m 6,4 km/h (2 Bft) 97,87 %
26.07.2020 03:20 18,3 C 16,7 C 16,7 C 96 % 1007,4 hPa 0,0 l/m 0 min 0 min 0 W/m 3,2 km/h (1 Bft) 97,83 %
26.07.2020 03:22 18,3 C 16,7 C 16,7 C 96 % 1007,4 hPa 0,0 l/m 0 min 0 min 0 W/m 6,4 km/h (2 Bft) 97,87 %
26.07.2020 03:24 18,3 C 16,7 C 16,7 C 97 % 1007,4 hPa 0,0 l/m 0 min 0 min 0 W/m 3,2 km/h (1 Bft) 97,87 %
26.07.2020 03:26 18,3 C 16,7 C 16,7 C 97 % 1007,4 hPa 0,0 l/m 0 min 0 min 0 W/m 6,4 km/h (2 Bft) 97,87 %
26.07.2020 03:28 18,2 C 16,7 C 16,7 C 97 % 1007,3 hPa 0,0 l/m 0 min 0 min 0 W/m 9,7 km/h (2 Bft) 97,87 %
26.07.2020 03:30 18,2 C 16,7 C 16,7 C 97 % 1007,4 hPa 0,0 l/m 0 min 0 min 0 W/m 12,9 km/h (3 Bft) 97,87 %
26.07.2020 03:32 18,2 C 16,7 C 16,7 C 97 % 1007,4 hPa 0,0 l/m 0 min 0 min 0 W/m 6,4 km/h (2 Bft) 97,83 %
26.07.2020 03:34 18,2 C 16,7 C 16,7 C 97 % 1007,4 hPa 0,0 l/m 0 min 0 min 0 W/m 3,2 km/h (1 Bft) 97,87 %
26.07.2020 03:36 18,2 C 16,7 C 16,7 C 97 % 1007,4 hPa 0,0 l/m 0 min 0 min 0 W/m 0,0 km/h (0 Bft) 97,87 %
26.07.2020 03:38 18,2 C 16,7 C 16,7 C 97 % 1007,4 hPa 0,0 l/m 0 min 0 min 0 W/m 0,0 km/h (0 Bft) 97,87 %
26.07.2020 03:40 18,2 C 16,7 C 16,7 C 97 % 1007,4 hPa 0,0 l/m 0 min 0 min 0 W/m 0,0 km/h (0 Bft) 97,87 %
26.07.2020 03:42 18,2 C 16,7 C 16,7 C 97 % 1007,4 hPa 0,0 l/m 0 min 0 min 0 W/m 0,0 km/h (0 Bft) 97,87 %
26.07.2020 03:44 18,2 C 16,7 C 16,7 C 97 % 1007,4 hPa 0,0 l/m 0 min 0 min 0 W/m 0,0 km/h (0 Bft) 95,65 %
26.07.2020 03:46 18,2 C 16,7 C 16,7 C 97 % 1007,4 hPa 0,0 l/m 0 min 0 min 0 W/m 0,0 km/h (0 Bft) 95,74 %
26.07.2020 03:48 18,2 C 16,7 C 16,7 C 97 % 1007,4 hPa 0,0 l/m 0 min 0 min 0 W/m 3,2 km/h (1 Bft) 95,74 %
26.07.2020 03:50 18,2 C 16,7 C 16,7 C 97 % 1007,5 hPa 0,0 l/m 0 min 0 min 0 W/m 0,0 km/h (0 Bft) 95,74 %
26.07.2020 03:52 18,2 C 16,7 C 16,7 C 97 % 1007,5 hPa 0,0 l/m 0 min 2 min 0 W/m 3,2 km/h (1 Bft) 93,62 %
26.07.2020 03:54 18,1 C 16,7 C 16,7 C 97 % 1007,6 hPa 0,0 l/m 0 min 2 min 0 W/m 12,9 km/h (3 Bft) 97,83 %
26.07.2020 03:56 18,1 C 16,7 C 16,7 C 97 % 1007,5 hPa 0,0 l/m 0 min 2 min 0 W/m 12,9 km/h (3 Bft) 97,87 %
26.07.2020 03:58 18,1 C 16,7 C 16,1 C 97 % 1007,5 hPa 0,0 l/m 0 min 2 min 0 W/m 3,2 km/h (1 Bft) 97,87 %
26.07.2020 04:00 18,1 C 16,7 C 16,1 C 97 % 1007,5 hPa 0,2 l/m 0 min 2 min 0 W/m 3,2 km/h (1 Bft) 94,87 %
26.07.2020 04:02 18,1 C 16,7 C 16,7 C 97 % 1007,4 hPa 0,0 l/m 0 min 2 min 0 W/m 6,4 km/h (2 Bft) 100,00 %
26.07.2020 04:04 18,1 C 16,1 C 16,1 C 97 % 1007,4 hPa 0,0 l/m 0 min 2 min 0 W/m 16,1 km/h (3 Bft) 100,00 %
26.07.2020 04:06 18,1 C 16,1 C 16,1 C 97 % 1007,4 hPa 0,0 l/m 0 min 2 min 0 W/m 16,1 km/h (3 Bft) 97,83 %
26.07.2020 04:08 18,0 C 16,1 C 16,1 C 97 % 1007,4 hPa 0,2 l/m 0 min 2 min 0 W/m 9,7 km/h (2 Bft) 97,87 %
26.07.2020 04:10 18,0 C 16,1 C 16,1 C 97 % 1007,4 hPa 0,0 l/m 0 min 2 min 0 W/m 12,9 km/h (3 Bft) 95,74 %
26.07.2020 04:12 17,9 C 16,1 C 16,1 C 97 % 1007,5 hPa 0,0 l/m 0 min 2 min 0 W/m 9,7 km/h (2 Bft) 97,87 %
26.07.2020 04:14 17,9 C 16,1 C 16,1 C 97 % 1007,4 hPa 0,0 l/m 0 min 2 min 0 W/m 9,7 km/h (2 Bft) 95,74 %
26.07.2020 04:16 17,9 C 16,1 C 16,1 C 97 % 1007,4 hPa 0,2 l/m 0 min 2 min 0 W/m 3,2 km/h (1 Bft) 97,87 %
26.07.2020 04:18 17,9 C 16,1 C 16,1 C 97 % 1007,4 hPa 0,0 l/m 0 min 2 min 0 W/m 6,4 km/h (2 Bft) 97,83 %
26.07.2020 04:20 17,8 C 16,1 C 16,1 C 97 % 1007,4 hPa 0,0 l/m 0 min 2 min 0 W/m 6,4 km/h (2 Bft) 97,87 %
26.07.2020 04:22 17,8 C 16,1 C 16,1 C 97 % 1007,4 hPa 0,0 l/m 0 min 2 min 0 W/m 16,1 km/h (3 Bft) 93,62 %
26.07.2020 04:24 17,8 C 16,1 C 16,1 C 97 % 1007,3 hPa 0,2 l/m 0 min 2 min 0 W/m 6,4 km/h (2 Bft) 95,74 %
26.07.2020 04:26 17,8 C 16,1 C 16,1 C 97 % 1007,3 hPa 0,0 l/m 0 min 2 min 0 W/m 12,9 km/h (3 Bft) 93,62 %
26.07.2020 04:28 17,7 C 16,1 C 15,6 C 97 % 1007,3 hPa 0,0 l/m 0 min 2 min 0 W/m 6,4 km/h (2 Bft) 95,74 %
26.07.2020 04:30 17,7 C 16,1 C 15,6 C 97 % 1007,3 hPa 0,0 l/m 0 min 2 min 0 W/m 9,7 km/h (2 Bft) 95,65 %
26.07.2020 04:32 17,7 C 15,6 C 16,1 C 97 % 1007,3 hPa 0,0 l/m 0 min 2 min 0 W/m 6,4 km/h (2 Bft) 95,74 %
26.07.2020 04:34 17,6 C 15,6 C 16,1 C 97 % 1007,3 hPa 0,0 l/m 0 min 2 min 0 W/m 3,2 km/h (1 Bft) 95,74 %
26.07.2020 04:36 17,6 C 15,6 C 16,1 C 97 % 1007,3 hPa 0,0 l/m 0 min 2 min 0 W/m 9,7 km/h (2 Bft) 95,74 %
26.07.2020 04:38 17,6 C 15,6 C 16,1 C 97 % 1007,2 hPa 0,0 l/m 0 min 2 min 0 W/m 9,7 km/h (2 Bft) 93,62 %
26.07.2020 04:40 17,6 C 15,6 C 15,6 C 97 % 1007,3 hPa 0,0 l/m 0 min 2 min 0 W/m 6,4 km/h (2 Bft) 95,74 %
26.07.2020 04:42 17,5 C 16,1 C 15,6 C 97 % 1007,3 hPa 0,0 l/m 0 min 2 min 0 W/m 12,9 km/h (3 Bft) 95,65 %
26.07.2020 04:44 17,5 C 16,1 C 15,6 C 97 % 1007,3 hPa 0,2 l/m 0 min 2 min 0 W/m 12,9 km/h (3 Bft) 95,74 %
26.07.2020 04:46 17,4 C 16,1 C 15,6 C 97 % 1007,3 hPa 0,0 l/m 0 min 2 min 0 W/m 6,4 km/h (2 Bft) 93,62 %
26.07.2020 04:48 17,4 C 15,6 C 15,6 C 97 % 1007,3 hPa 0,0 l/m 0 min 0 min 0 W/m 3,2 km/h (1 Bft) 93,62 %
26.07.2020 04:50 17,4 C 16,1 C 15,6 C 97 % 1007,4 hPa 0,0 l/m 0 min 0 min 0 W/m 3,2 km/h (1 Bft) 95,74 %
26.07.2020 04:52 17,4 C 16,1 C 15,6 C 97 % 1007,4 hPa 0,0 l/m 0 min 2 min 0 W/m 6,4 km/h (2 Bft) 95,74 %
26.07.2020 04:54 17,4 C 15,6 C 15,6 C 97 % 1007,4 hPa 0,0 l/m 0 min 2 min 0 W/m 6,4 km/h (2 Bft) 95,65 %
26.07.2020 04:56 17,4 C 15,6 C 15,6 C 97 % 1007,4 hPa 0,0 l/m 0 min 2 min 0 W/m 6,4 km/h (2 Bft) 93,62 %
26.07.2020 04:58 17,4 C 15,6 C 15,6 C 97 % 1007,4 hPa 0,0 l/m 0 min 2 min 0 W/m 19,3 km/h (3 Bft) 97,87 %
26.07.2020 05:00 17,4 C 15,6 C 15,6 C 97 % 1007,4 hPa 0,0 l/m 0 min 2 min 0 W/m 12,9 km/h (3 Bft) 95,74 %
26.07.2020 05:02 17,4 C 15,6 C 15,6 C 97 % 1007,5 hPa 0,0 l/m 0 min 2 min 0 W/m 6,4 km/h (2 Bft) 97,87 %
26.07.2020 05:04 17,4 C 15,6 C 15,6 C 98 % 1007,4 hPa 0,0 l/m 0 min 2 min 0 W/m 16,1 km/h (3 Bft) 97,83 %
26.07.2020 05:06 17,4 C 15,6 C 15,6 C 98 % 1007,4 hPa 0,2 l/m 0 min 2 min 0 W/m 6,4 km/h (2 Bft) 97,87 %
26.07.2020 05:08 17,4 C 15,6 C 15,6 C 98 % 1007,4 hPa 0,0 l/m 0 min 2 min 0 W/m 6,4 km/h (2 Bft) 97,87 %
26.07.2020 05:10 17,3 C 15,6 C 15,6 C 98 % 1007,4 hPa 0,0 l/m 0 min 2 min 0 W/m 6,4 km/h (2 Bft) 100,00 %
26.07.2020 05:12 17,3 C 15,6 C 15,6 C 98 % 1007,4 hPa 0,2 l/m 0 min 2 min 0 W/m 3,2 km/h (1 Bft) 97,87 %
26.07.2020 05:14 17,3 C 15,6 C 15,6 C 98 % 1007,3 hPa 0,2 l/m 0 min 2 min 0 W/m 3,2 km/h (1 Bft) 100,00 %
26.07.2020 05:16 17,3 C 15,6 C 15,6 C 97 % 1007,3 hPa 0,0 l/m 0 min 2 min 0 W/m 6,4 km/h (2 Bft) 100,00 %
26.07.2020 05:18 17,3 C 15,6 C 15,6 C 98 % 1007,3 hPa 0,0 l/m 0 min 2 min 0 W/m 12,9 km/h (3 Bft) 100,00 %
26.07.2020 05:20 17,3 C 15,6 C 15,6 C 98 % 1007,3 hPa 0,2 l/m 0 min 2 min 0 W/m 6,4 km/h (2 Bft) 100,00 %
26.07.2020 05:22 17,3 C 16,1 C 15,6 C 98 % 1007,4 hPa 0,0 l/m 0 min 2 min 0 W/m 6,4 km/h (2 Bft) 97,87 %
26.07.2020 05:24 17,3 C 16,1 C 15,6 C 98 % 1007,3 hPa 0,0 l/m 0 min 2 min 0 W/m 0,0 km/h (0 Bft) 97,87 %
26.07.2020 05:26 17,3 C 16,1 C 15,6 C 98 % 1007,4 hPa 0,0 l/m 0 min 2 min 0 W/m 3,2 km/h (1 Bft) 100,00 %
26.07.2020 05:28 17,3 C 15,6 C 15,6 C 98 % 1007,3 hPa 0,0 l/m 0 min 2 min 0 W/m 6,4 km/h (2 Bft) 100,00 %
26.07.2020 05:30 17,3 C 15,6 C 15,6 C 98 % 1007,4 hPa 0,2 l/m 0 min 2 min 0 W/m 19,3 km/h (3 Bft) 100,00 %
26.07.2020 05:32 17,3 C 16,1 C 15,6 C 98 % 1007,4 hPa 0,0 l/m 0 min 2 min 0 W/m 16,1 km/h (3 Bft) 100,00 %
26.07.2020 05:34 17,3 C 16,1 C 15,6 C 98 % 1007,4 hPa 0,0 l/m 0 min 2 min 0 W/m 3,2 km/h (1 Bft) 100,00 %
26.07.2020 05:36 17,3 C 16,1 C 15,6 C 98 % 1007,4 hPa 0,0 l/m 0 min 2 min 0 W/m 6,4 km/h (2 Bft) 100,00 %
26.07.2020 05:38 17,3 C 16,1 C 15,6 C 98 % 1007,4 hPa 0,0 l/m 0 min 0 min 0 W/m 6,4 km/h (2 Bft) 97,87 %
26.07.2020 05:40 17,3 C 16,1 C 15,6 C 98 % 1007,4 hPa 0,0 l/m 0 min 2 min 0 W/m 3,2 km/h (1 Bft) 100,00 %
26.07.2020 05:42 17,3 C 16,1 C 15,6 C 98 % 1007,4 hPa 0,0 l/m 0 min 2 min 0 W/m 3,2 km/h (1 Bft) 100,00 %
26.07.2020 05:44 17,3 C 16,1 C 15,6 C 98 % 1007,4 hPa 0,0 l/m 0 min 0 min 0 W/m 6,4 km/h (2 Bft) 100,00 %
26.07.2020 05:46 17,3 C 16,1 C 15,6 C 98 % 1007,5 hPa 0,0 l/m 0 min 0 min 0 W/m 6,4 km/h (2 Bft) 100,00 %
26.07.2020 05:48 17,3 C 16,1 C 15,6 C 98 % 1007,5 hPa 0,0 l/m 0 min 0 min 0 W/m 0,0 km/h (0 Bft) 97,87 %
26.07.2020 05:50 17,3 C 16,1 C 15,6 C 98 % 1007,5 hPa 0,0 l/m 0 min 0 min 0 W/m 3,2 km/h (1 Bft) 97,87 %
26.07.2020 05:52 17,3 C 16,1 C 15,6 C 98 % 1007,5 hPa 0,0 l/m 0 min 0 min 0 W/m 9,7 km/h (2 Bft) 100,00 %
26.07.2020 05:54 17,3 C 16,1 C 15,6 C 98 % 1007,5 hPa 0,0 l/m 0 min 2 min 0 W/m 12,9 km/h (3 Bft) 100,00 %
26.07.2020 05:56 17,3 C 16,1 C 15,6 C 98 % 1007,4 hPa 0,0 l/m 0 min 2 min 0 W/m 6,4 km/h (2 Bft) 100,00 %
26.07.2020 05:58 17,3 C 16,1 C 15,6 C 98 % 1007,4 hPa 0,0 l/m 0 min 0 min 0 W/m 6,4 km/h (2 Bft) 100,00 %
26.07.2020 06:00 17,3 C 16,1 C 15,6 C 98 % 1007,3 hPa 0,0 l/m 0 min 0 min 0 W/m 12,9 km/h (3 Bft) 100,00 %
26.07.2020 06:02 17,3 C 16,1 C 15,6 C 98 % 1007,3 hPa 0,0 l/m 0 min 0 min 0 W/m 9,7 km/h (2 Bft) 95,74 %
26.07.2020 06:04 17,3 C 16,1 C 15,6 C 98 % 1007,3 hPa 0,0 l/m 0 min 0 min 0 W/m 12,9 km/h (3 Bft) 100,00 %
26.07.2020 06:08 17,3 C 16,1 C 15,6 C 98 % 1007,1 hPa 0,0 l/m 0 min 0 min 0 W/m 6,4 km/h (2 Bft) 100,00 %
26.07.2020 06:10 17,3 C 16,1 C 15,6 C 98 % 1007,0 hPa 0,0 l/m 0 min 0 min 0 W/m 12,9 km/h (3 Bft) 100,00 %
26.07.2020 06:12 17,3 C 16,1 C 15,6 C 98 % 1007,2 hPa 0,0 l/m 0 min 0 min 0 W/m 3,2 km/h (1 Bft) 100,00 %
26.07.2020 06:14 17,2 C 16,1 C 15,6 C 98 % 1007,4 hPa 0,0 l/m 0 min 0 min 0 W/m 3,2 km/h (1 Bft) 100,00 %
26.07.2020 06:16 17,2 C 16,1 C 15,6 C 98 % 1007,3 hPa 0,0 l/m 0 min 0 min 0 W/m 3,2 km/h (1 Bft) 100,00 %
26.07.2020 06:18 17,2 C 16,1 C 15,6 C 98 % 1007,3 hPa 0,0 l/m 0 min 0 min 0 W/m 6,4 km/h (2 Bft) 100,00 %
26.07.2020 06:20 17,2 C 16,1 C 15,6 C 98 % 1007,3 hPa 0,0 l/m 0 min 2 min 3 W/m 3,2 km/h (1 Bft) 100,00 %
26.07.2020 06:22 17,2 C 16,1 C 15,6 C 98 % 1007,3 hPa 0,0 l/m 0 min 2 min 6 W/m 3,2 km/h (1 Bft) 100,00 %
26.07.2020 06:24 17,2 C 16,1 C 15,6 C 98 % 1007,3 hPa 0,0 l/m 0 min 2 min 7 W/m 6,4 km/h (2 Bft) 100,00 %
26.07.2020 06:26 17,2 C 16,1 C 15,6 C 98 % 1007,3 hPa 0,0 l/m 0 min 0 min 9 W/m 3,2 km/h (1 Bft) 97,83 %
26.07.2020 06:28 17,2 C 15,6 C 15,6 C 98 % 1007,2 hPa 0,0 l/m 0 min 0 min 8 W/m 6,4 km/h (2 Bft) 97,87 %
26.07.2020 06:30 17,2 C 15,6 C 15,6 C 98 % 1007,3 hPa 0,0 l/m 0 min 0 min 7 W/m 6,4 km/h (2 Bft) 95,74 %
26.07.2020 06:32 17,2 C 15,6 C 15,6 C 98 % 1007,3 hPa 0,0 l/m 0 min 0 min 7 W/m 6,4 km/h (2 Bft) 97,87 %
26.07.2020 06:34 17,2 C 15,6 C 15,6 C 98 % 1007,4 hPa 0,0 l/m 0 min 0 min 7 W/m 3,2 km/h (1 Bft) 97,87 %
26.07.2020 06:36 17,2 C 16,1 C 15,6 C 98 % 1007,6 hPa 0,0 l/m 0 min 0 min 7 W/m 3,2 km/h (1 Bft) 97,87 %
26.07.2020 06:38 17,2 C 15,6 C 15,6 C 98 % 1007,7 hPa 0,0 l/m 0 min 2 min 6 W/m 9,7 km/h (2 Bft) 97,83 %
26.07.2020 06:40 17,2 C 15,6 C 15,6 C 98 % 1007,7 hPa 0,0 l/m 0 min 2 min 5 W/m 0,0 km/h (0 Bft) 97,87 %
26.07.2020 06:42 17,2 C 15,6 C 15,6 C 99 % 1007,8 hPa 0,0 l/m 0 min 2 min 5 W/m 9,7 km/h (2 Bft) 95,74 %
26.07.2020 06:44 17,2 C 16,1 C 15,6 C 99 % 1007,8 hPa 0,0 l/m 0 min 0 min 7 W/m 3,2 km/h (1 Bft) 97,87 %
26.07.2020 06:46 17,2 C 16,1 C 15,6 C 99 % 1007,8 hPa 0,0 l/m 0 min 0 min 11 W/m 3,2 km/h (1 Bft) 95,74 %
26.07.2020 06:48 17,2 C 15,6 C 15,6 C 99 % 1007,7 hPa 0,0 l/m 0 min 0 min 14 W/m 6,4 km/h (2 Bft) 97,87 %
26.07.2020 06:50 17,2 C 15,6 C 15,6 C 99 % 1007,6 hPa 0,0 l/m 0 min 0 min 18 W/m 6,4 km/h (2 Bft) 95,65 %
26.07.2020 06:52 17,2 C 16,1 C 15,6 C 99 % 1007,6 hPa 0,0 l/m 0 min 0 min 25 W/m 3,2 km/h (1 Bft) 97,87 %
26.07.2020 06:54 17,2 C 16,1 C 15,6 C 99 % 1007,7 hPa 0,0 l/m 0 min 0 min 32 W/m 3,2 km/h (1 Bft) 97,87 %
26.07.2020 06:56 17,2 C 16,1 C 15,6 C 99 % 1007,8 hPa 0,0 l/m 0 min 0 min 38 W/m 12,9 km/h (3 Bft) 93,62 %
26.07.2020 06:58 17,2 C 16,1 C 15,6 C 99 % 1007,9 hPa 0,0 l/m 0 min 0 min 40 W/m 6,4 km/h (2 Bft) 97,87 %
26.07.2020 07:00 17,2 C 16,1 C 15,6 C 99 % 1008,0 hPa 0,0 l/m 0 min 0 min 27 W/m 3,2 km/h (1 Bft) 97,87 %
26.07.2020 07:02 17,1 C 16,1 C 15,6 C 99 % 1008,0 hPa 0,0 l/m 0 min 0 min 25 W/m 6,4 km/h (2 Bft) 96,23 %
26.07.2020 07:04 17,1 C 16,1 C 15,6 C 99 % 1008,0 hPa 0,0 l/m 0 min 0 min 24 W/m 6,4 km/h (2 Bft) 95,74 %
26.07.2020 07:06 17,2 C 16,1 C 15,6 C 99 % 1008,0 hPa 0,0 l/m 0 min 0 min 23 W/m 6,4 km/h (2 Bft) 95,74 %
26.07.2020 07:08 17,1 C 16,1 C 15,6 C 99 % 1008,0 hPa 0,0 l/m 0 min 0 min 22 W/m 6,4 km/h (2 Bft) 93,62 %
26.07.2020 07:10 17,1 C 16,1 C 15,6 C 99 % 1008,1 hPa 0,0 l/m 0 min 0 min 18 W/m 3,2 km/h (1 Bft) 91,49 %
26.07.2020 07:12 17,1 C 16,1 C 15,6 C 99 % 1008,1 hPa 0,0 l/m 0 min 0 min 17 W/m 16,1 km/h (3 Bft) 93,62 %
26.07.2020 07:14 17,1 C 16,1 C 15,6 C 99 % 1008,1 hPa 0,0 l/m 0 min 0 min 14 W/m 3,2 km/h (1 Bft) 93,62 %
26.07.2020 07:16 17,1 C 16,1 C 15,6 C 99 % 1008,1 hPa 0,0 l/m 0 min 0 min 12 W/m 12,9 km/h (3 Bft) 93,62 %
26.07.2020 07:18 17,1 C 16,1 C 15,6 C 99 % 1008,2 hPa 0,0 l/m 0 min 0 min 13 W/m 6,4 km/h (2 Bft) 93,62 %
26.07.2020 07:20 17,1 C 16,1 C 15,6 C 99 % 1008,2 hPa 0,0 l/m 0 min 0 min 20 W/m 12,9 km/h (3 Bft) 95,74 %
26.07.2020 07:22 17,1 C 16,1 C 15,6 C 99 % 1008,2 hPa 0,0 l/m 0 min 0 min 39 W/m 16,1 km/h (3 Bft) 93,62 %
26.07.2020 07:24 17,1 C 16,1 C 15,6 C 99 % 1008,2 hPa 0,0 l/m 0 min 0 min 38 W/m 6,4 km/h (2 Bft) 95,65 %
26.07.2020 07:26 17,1 C 16,1 C 15,6 C 99 % 1008,2 hPa 0,0 l/m 0 min 0 min 49 W/m 6,4 km/h (2 Bft) 91,49 %
26.07.2020 07:28 17,1 C 15,6 C 15,6 C 99 % 1008,2 hPa 0,0 l/m 0 min 0 min 19 W/m 22,5 km/h (4 Bft) 93,62 %
26.07.2020 07:30 17,1 C 15,6 C 15,6 C 99 % 1008,2 hPa 0,0 l/m 0 min 0 min 20 W/m 6,4 km/h (2 Bft) 95,74 %
26.07.2020 07:32 17,1 C 16,1 C 15,6 C 99 % 1008,2 hPa 0,0 l/m 0 min 0 min 44 W/m 9,7 km/h (2 Bft) 51,22 %
26.07.2020 07:34 17,1 C 16,1 C 15,6 C 99 % 1008,2 hPa 0,0 l/m 0 min 0 min 49 W/m 6,4 km/h (2 Bft) 91,89 %
26.07.2020 07:36 17,0 C 16,1 C 15,6 C 99 % 1008,3 hPa 0,0 l/m 0 min 0 min 51 W/m 12,9 km/h (3 Bft) 95,65 %
26.07.2020 07:38 17,1 C 16,1 C 15,6 C 99 % 1008,3 hPa 0,0 l/m 0 min 0 min 45 W/m 9,7 km/h (2 Bft) 95,74 %
26.07.2020 07:40 17,0 C 16,1 C 15,6 C 99 % 1008,3 hPa 0,0 l/m 0 min 0 min 44 W/m 9,7 km/h (2 Bft) 95,74 %
26.07.2020 07:42 17,0 C 16,1 C 15,6 C 99 % 1008,3 hPa 0,0 l/m 0 min 0 min 50 W/m 16,1 km/h (3 Bft) 95,74 %
26.07.2020 07:44 17,0 C 16,1 C 15,6 C 99 % 1008,3 hPa 0,0 l/m 0 min 0 min 43 W/m 3,2 km/h (1 Bft) 91,49 %
26.07.2020 07:46 17,0 C 16,1 C 15,6 C 99 % 1008,3 hPa 0,0 l/m 0 min 0 min 69 W/m 16,1 km/h (3 Bft) 95,74 %
26.07.2020 07:48 17,0 C 16,1 C 15,6 C 99 % 1008,4 hPa 0,0 l/m 0 min 0 min 88 W/m 19,3 km/h (3 Bft) 95,65 %
26.07.2020 07:50 17,1 C 16,1 C 15,6 C 99 % 1008,4 hPa 0,0 l/m 0 min 0 min 69 W/m 16,1 km/h (3 Bft) 95,74 %
26.07.2020 07:52 17,0 C 16,1 C 15,6 C 99 % 1008,4 hPa 0,0 l/m 0 min 0 min 62 W/m 19,3 km/h (3 Bft) 97,87 %
26.07.2020 07:54 17,1 C 16,1 C 15,6 C 99 % 1008,5 hPa 0,0 l/m 0 min 0 min 61 W/m 9,7 km/h (2 Bft) 93,62 %
26.07.2020 07:56 17,1 C 16,1 C 15,6 C 99 % 1008,5 hPa 0,0 l/m 0 min 0 min 74 W/m 12,9 km/h (3 Bft) 97,87 %
26.07.2020 07:58 17,1 C 16,1 C 16,1 C 99 % 1008,5 hPa 0,0 l/m 0 min 0 min 82 W/m 12,9 km/h (3 Bft) 100,00 %
26.07.2020 08:00 17,1 C 16,1 C 15,6 C 99 % 1008,6 hPa 0,0 l/m 0 min 0 min 71 W/m 12,9 km/h (3 Bft) 100,00 %
26.07.2020 08:02 17,1 C 16,1 C 15,6 C 99 % 1008,6 hPa 0,0 l/m 0 min 0 min 73 W/m 12,9 km/h (3 Bft) 97,87 %
26.07.2020 08:04 17,1 C 16,1 C 15,6 C 99 % 1008,6 hPa 0,0 l/m 0 min 0 min 83 W/m 16,1 km/h (3 Bft) 100,00 %
26.07.2020 08:06 17,0 C 16,1 C 15,6 C 99 % 1008,6 hPa 0,0 l/m 0 min 0 min 79 W/m 16,1 km/h (3 Bft) 100,00 %
26.07.2020 08:08 17,1 C 16,1 C 16,1 C 99 % 1008,7 hPa 0,0 l/m 0 min 0 min 74 W/m 6,4 km/h (2 Bft) 100,00 %
26.07.2020 08:10 17,1 C 16,7 C 16,1 C 99 % 1008,7 hPa 0,0 l/m 0 min 0 min 91 W/m 12,9 km/h (3 Bft) 100,00 %
26.07.2020 08:12 17,1 C 16,7 C 16,1 C 99 % 1009,0 hPa 0,0 l/m 0 min 0 min 108 W/m 19,3 km/h (3 Bft) 100,00 %
26.07.2020 08:14 17,1 C 16,7 C 16,1 C 99 % 1008,8 hPa 0,0 l/m 0 min 0 min 103 W/m 12,9 km/h (3 Bft) 100,00 %
26.07.2020 08:16 17,1 C 16,7 C 16,1 C 99 % 1008,7 hPa 0,0 l/m 0 min 0 min 81 W/m 9,7 km/h (2 Bft) 95,74 %
26.07.2020 08:18 17,1 C 16,7 C 16,1 C 99 % 1008,9 hPa 0,0 l/m 0 min 0 min 114 W/m 12,9 km/h (3 Bft) 100,00 %
26.07.2020 08:20 17,1 C 17,2 C 16,1 C 99 % 1008,8 hPa 0,0 l/m 0 min 0 min 118 W/m 19,3 km/h (3 Bft) 100,00 %
26.07.2020 08:22 17,2 C 17,2 C 16,1 C 99 % 1008,8 hPa 0,0 l/m 0 min 0 min 116 W/m 12,9 km/h (3 Bft) 100,00 %
26.07.2020 08:24 17,2 C 17,8 C 16,1 C 99 % 1008,8 hPa 0,0 l/m 0 min 0 min 130 W/m 16,1 km/h (3 Bft) 100,00 %
26.07.2020 08:26 17,2 C 18,3 C 16,7 C 99 % 1008,9 hPa 0,0 l/m 0 min 0 min 152 W/m 25,7 km/h (4 Bft) 100,00 %
26.07.2020 08:28 17,3 C 18,3 C 16,7 C 99 % 1009,0 hPa 0,0 l/m 2 min 0 min 192 W/m 19,3 km/h (3 Bft) 97,87 %
26.07.2020 08:30 17,3 C 17,8 C 16,7 C 99 % 1008,9 hPa 0,0 l/m 0 min 0 min 125 W/m 12,9 km/h (3 Bft) 97,87 %
26.07.2020 08:32 17,4 C 17,2 C 16,1 C 99 % 1008,9 hPa 0,0 l/m 0 min 0 min 80 W/m 19,3 km/h (3 Bft) 100,00 %
26.07.2020 08:34 17,3 C 16,7 C 16,1 C 99 % 1008,9 hPa 0,0 l/m 0 min 0 min 80 W/m 19,3 km/h (3 Bft) 100,00 %
26.07.2020 08:36 17,3 C 17,8 C 16,1 C 99 % 1008,9 hPa 0,0 l/m 0 min 0 min 106 W/m 16,1 km/h (3 Bft) 100,00 %
26.07.2020 08:38 17,4 C 18,9 C 16,1 C 99 % 1008,9 hPa 0,0 l/m 0 min 0 min 127 W/m 12,9 km/h (3 Bft) 100,00 %
26.07.2020 08:40 17,4 C 18,3 C 16,1 C 99 % 1009,0 hPa 0,0 l/m 0 min 0 min 133 W/m 16,1 km/h (3 Bft) 97,87 %
26.07.2020 08:42 17,4 C 17,8 C 16,1 C 99 % 1009,0 hPa 0,0 l/m 0 min 0 min 148 W/m 16,1 km/h (3 Bft) 100,00 %
26.07.2020 08:44 17,5 C 17,8 C 16,7 C 99 % 1009,0 hPa 0,0 l/m 0 min 0 min 172 W/m 19,3 km/h (3 Bft) 100,00 %
26.07.2020 08:46 17,5 C 17,2 C 16,1 C 99 % 1009,1 hPa 0,0 l/m 0 min 0 min 138 W/m 19,3 km/h (3 Bft) 100,00 %
26.07.2020 08:48 17,5 C 17,2 C 16,1 C 99 % 1009,1 hPa 0,0 l/m 0 min 0 min 120 W/m 6,4 km/h (2 Bft) 100,00 %
26.07.2020 08:50 17,6 C 17,2 C 16,7 C 99 % 1009,1 hPa 0,0 l/m 0 min 0 min 132 W/m 6,4 km/h (2 Bft) 100,00 %
26.07.2020 08:52 17,6 C 17,8 C 16,7 C 99 % 1009,1 hPa 0,0 l/m 0 min 0 min 149 W/m 6,4 km/h (2 Bft) 100,00 %
26.07.2020 08:54 17,6 C 17,2 C 16,7 C 99 % 1009,1 hPa 0,0 l/m 0 min 0 min 129 W/m 12,9 km/h (3 Bft) 100,00 %
26.07.2020 08:56 17,6 C 17,2 C 16,1 C 99 % 1009,2 hPa 0,0 l/m 0 min 0 min 114 W/m 12,9 km/h (3 Bft) 100,00 %
26.07.2020 08:58 17,6 C 17,2 C 16,7 C 98 % 1009,3 hPa 0,0 l/m 0 min 0 min 126 W/m 12,9 km/h (3 Bft) 100,00 %
26.07.2020 09:00 17,6 C 17,2 C 16,1 C 98 % 1009,3 hPa 0,0 l/m 0 min 0 min 104 W/m 12,9 km/h (3 Bft) 100,00 %
26.07.2020 09:02 17,6 C 17,8 C 17,2 C 98 % 1009,2 hPa 0,0 l/m 0 min 0 min 140 W/m 12,9 km/h (3 Bft) 100,00 %
26.07.2020 09:04 17,6 C 19,4 C 19,4 C 98 % 1009,3 hPa 0,0 l/m 0 min 0 min 193 W/m 9,7 km/h (2 Bft) 100,00 %
26.07.2020 09:06 17,7 C 18,9 C 18,9 C 98 % 1009,3 hPa 0,0 l/m 2 min 0 min 435 W/m 16,1 km/h (3 Bft) 100,00 %
26.07.2020 09:08 17,7 C 18,3 C 17,8 C 98 % 1009,3 hPa 0,0 l/m 0 min 0 min 179 W/m 12,9 km/h (3 Bft) 100,00 %
26.07.2020 09:10 17,8 C 17,8 C 17,2 C 98 % 1009,4 hPa 0,0 l/m 0 min 0 min 111 W/m 12,9 km/h (3 Bft) 97,83 %
26.07.2020 09:12 17,8 C 17,8 C 16,7 C 98 % 1009,4 hPa 0,0 l/m 0 min 0 min 129 W/m 6,4 km/h (2 Bft) 100,00 %
26.07.2020 09:14 17,9 C 17,8 C 16,7 C 98 % 1009,4 hPa 0,0 l/m 0 min 0 min 152 W/m 16,1 km/h (3 Bft) 100,00 %
26.07.2020 09:16 17,9 C 18,3 C 17,2 C 98 % 1009,5 hPa 0,0 l/m 0 min 0 min 222 W/m 19,3 km/h (3 Bft) 100,00 %
26.07.2020 09:18 17,9 C 20,0 C 19,4 C 98 % 1009,4 hPa 0,0 l/m 0 min 0 min 165 W/m 12,9 km/h (3 Bft) 100,00 %
26.07.2020 09:20 18,1 C 20,0 C 20,0 C 98 % 1009,6 hPa 0,0 l/m 2 min 0 min 477 W/m 12,9 km/h (3 Bft) 97,87 %
26.07.2020 09:22 18,2 C 20,0 C 20,0 C 97 % 1009,6 hPa 0,0 l/m 2 min 0 min 553 W/m 12,9 km/h (3 Bft) 100,00 %
26.07.2020 09:24 18,3 C 20,6 C 20,6 C 98 % 1009,6 hPa 0,0 l/m 2 min 0 min 469 W/m 12,9 km/h (3 Bft) 97,87 %
26.07.2020 09:26 18,4 C 21,1 C 21,1 C 97 % 1009,5 hPa 0,0 l/m 2 min 0 min 425 W/m 12,9 km/h (3 Bft) 95,74 %
26.07.2020 09:28 18,4 C 20,6 C 20,0 C 97 % 1009,6 hPa 0,0 l/m 0 min 0 min 253 W/m 12,9 km/h (3 Bft) 100,00 %
26.07.2020 09:30 18,5 C 20,6 C 19,4 C 97 % 1009,6 hPa 0,0 l/m 0 min 0 min 253 W/m 35,4 km/h (5 Bft) 100,00 %
26.07.2020 09:32 18,6 C 20,0 C 18,3 C 97 % 1009,7 hPa 0,0 l/m 0 min 0 min 216 W/m 12,9 km/h (3 Bft) 100,00 %
26.07.2020 09:34 18,6 C 19,4 C 17,8 C 96 % 1009,7 hPa 0,0 l/m 0 min 0 min 147 W/m 16,1 km/h (3 Bft) 100,00 %
26.07.2020 09:36 18,6 C 18,9 C 17,2 C 95 % 1009,8 hPa 0,0 l/m 0 min 0 min 169 W/m 19,3 km/h (3 Bft) 100,00 %
26.07.2020 09:38 18,6 C 19,4 C 17,2 C 95 % 1009,7 hPa 0,0 l/m 0 min 0 min 199 W/m 16,1 km/h (3 Bft) 100,00 %
26.07.2020 09:40 18,7 C 21,1 C 18,9 C 94 % 1009,8 hPa 0,0 l/m 2 min 0 min 288 W/m 6,4 km/h (2 Bft) 97,87 %
26.07.2020 09:42 18,7 C 22,8 C 20,0 C 94 % 1009,8 hPa 0,0 l/m 2 min 0 min 346 W/m 9,7 km/h (2 Bft) 95,74 %
26.07.2020 09:44 18,9 C 23,3 C 21,1 C 94 % 1009,8 hPa 0,0 l/m 2 min 0 min 346 W/m 6,4 km/h (2 Bft) 95,65 %
26.07.2020 09:46 19,1 C 24,4 C 21,7 C 94 % 1009,8 hPa 0,0 l/m 2 min 0 min 416 W/m 16,1 km/h (3 Bft) 95,74 %
26.07.2020 09:48 19,2 C 24,4 C 21,7 C 94 % 1009,8 hPa 0,0 l/m 2 min 0 min 638 W/m 12,9 km/h (3 Bft) 95,74 %
26.07.2020 09:50 19,3 C 24,4 C 21,7 C 93 % 1009,9 hPa 0,0 l/m 2 min 0 min 644 W/m 16,1 km/h (3 Bft) 91,49 %
26.07.2020 09:52 19,4 C 24,4 C 21,7 C 93 % 1009,9 hPa 0,0 l/m 2 min 0 min 645 W/m 19,3 km/h (3 Bft) 95,74 %
26.07.2020 09:54 19,6 C 25,0 C 22,2 C 91 % 1009,9 hPa 0,0 l/m 2 min 0 min 663 W/m 25,7 km/h (4 Bft) 95,74 %
26.07.2020 09:56 19,6 C 22,8 C 20,6 C 90 % 1010,0 hPa 0,0 l/m 2 min 0 min 640 W/m 16,1 km/h (3 Bft) 95,65 %
26.07.2020 09:58 19,7 C 22,8 C 20,0 C 89 % 1010,0 hPa 0,0 l/m 0 min 0 min 204 W/m 9,7 km/h (2 Bft) 93,62 %
26.07.2020 10:00 19,8 C 23,3 C 20,6 C 88 % 1010,0 hPa 0,0 l/m 2 min 0 min 403 W/m 12,9 km/h (3 Bft) 93,62 %
26.07.2020 10:02 19,9 C 23,3 C 20,6 C 88 % 1010,1 hPa 0,0 l/m 2 min 0 min 669 W/m 22,5 km/h (4 Bft) 93,62 %
26.07.2020 10:04 19,9 C 23,3 C 20,0 C 87 % 1010,1 hPa 0,0 l/m 2 min 0 min 346 W/m 12,9 km/h (3 Bft) 96,08 %
26.07.2020 10:06 20,1 C 23,3 C 20,6 C 87 % 1010,2 hPa 0,0 l/m 2 min 0 min 389 W/m 16,1 km/h (3 Bft) 93,48 %
26.07.2020 10:08 20,1 C 23,3 C 21,1 C 86 % 1010,2 hPa 0,0 l/m 2 min 0 min 520 W/m 16,1 km/h (3 Bft) 91,49 %
26.07.2020 10:10 20,2 C 23,3 C 21,1 C 85 % 1010,3 hPa 0,0 l/m 2 min 0 min 645 W/m 16,1 km/h (3 Bft) 91,49 %
26.07.2020 10:12 20,3 C 23,9 C 21,7 C 85 % 1010,3 hPa 0,0 l/m 2 min 0 min 648 W/m 16,1 km/h (3 Bft) 93,62 %
26.07.2020 10:14 20,3 C 24,4 C 22,2 C 85 % 1010,3 hPa 0,0 l/m 2 min 0 min 668 W/m 9,7 km/h (2 Bft) 93,62 %
26.07.2020 10:16 20,4 C 23,9 C 21,7 C 84 % 1010,4 hPa 0,0 l/m 2 min 0 min 664 W/m 19,3 km/h (3 Bft) 95,74 %
26.07.2020 10:18 20,5 C 23,9 C 22,2 C 83 % 1010,4 hPa 0,0 l/m 2 min 0 min 668 W/m 22,5 km/h (4 Bft) 93,48 %
26.07.2020 10:20 20,6 C 23,9 C 22,2 C 83 % 1010,4 hPa 0,0 l/m 2 min 0 min 716 W/m 22,5 km/h (4 Bft) 93,62 %
26.07.2020 10:22 20,7 C 25,0 C 23,3 C 83 % 1010,4 hPa 0,0 l/m 2 min 0 min 747 W/m 12,9 km/h (3 Bft) 95,74 %
26.07.2020 10:24 20,8 C 24,4 C 23,9 C 83 % 1010,5 hPa 0,0 l/m 2 min 0 min 747 W/m 12,9 km/h (3 Bft) 95,74 %
26.07.2020 10:26 20,9 C 25,0 C 24,4 C 83 % 1010,5 hPa 0,0 l/m 2 min 0 min 753 W/m 9,7 km/h (2 Bft) 93,62 %
26.07.2020 10:28 21,0 C 24,4 C 25,0 C 83 % 1010,5 hPa 0,0 l/m 2 min 0 min 777 W/m 12,9 km/h (3 Bft) 95,74 %
26.07.2020 10:30 21,1 C 23,9 C 23,9 C 83 % 1010,6 hPa 0,0 l/m 2 min 0 min 772 W/m 16,1 km/h (3 Bft) 95,65 %
26.07.2020 10:32 21,1 C 22,8 C 22,8 C 82 % 1010,5 hPa 0,0 l/m 2 min 0 min 421 W/m 16,1 km/h (3 Bft) 97,87 %
26.07.2020 10:34 21,1 C 22,2 C 21,7 C 80 % 1010,7 hPa 0,0 l/m 0 min 0 min 115 W/m 16,1 km/h (3 Bft) 97,87 %
26.07.2020 10:36 20,9 C 22,2 C 22,2 C 80 % 1010,6 hPa 0,0 l/m 2 min 0 min 657 W/m 19,3 km/h (3 Bft) 95,74 %
26.07.2020 10:38 20,9 C 23,3 C 22,8 C 79 % 1010,6 hPa 0,0 l/m 0 min 0 min 275 W/m 12,9 km/h (3 Bft) 95,74 %
26.07.2020 10:40 20,9 C 23,3 C 22,8 C 79 % 1010,7 hPa 0,0 l/m 2 min 0 min 730 W/m 16,1 km/h (3 Bft) 95,74 %
26.07.2020 10:42 20,9 C 23,3 C 23,3 C 80 % 1010,7 hPa 0,0 l/m 2 min 0 min 735 W/m 22,5 km/h (4 Bft) 97,83 %
26.07.2020 10:44 20,9 C 23,9 C 23,3 C 79 % 1010,7 hPa 0,0 l/m 2 min 0 min 735 W/m 19,3 km/h (3 Bft) 97,87 %
26.07.2020 10:46 21,0 C 23,9 C 23,9 C 80 % 1010,7 hPa 0,0 l/m 2 min 0 min 835 W/m 12,9 km/h (3 Bft) 95,74 %
26.07.2020 10:48 21,0 C 22,2 C 22,2 C 79 % 1010,7 hPa 0,0 l/m 0 min 0 min 206 W/m 12,9 km/h (3 Bft) 97,87 %
26.07.2020 10:50 21,0 C 21,1 C 21,1 C 80 % 1010,7 hPa 0,0 l/m 0 min 0 min 118 W/m 12,9 km/h (3 Bft) 95,74 %
26.07.2020 10:52 20,9 C 20,0 C 20,0 C 78 % 1010,7 hPa 0,0 l/m 0 min 0 min 100 W/m 16,1 km/h (3 Bft) 97,87 %
26.07.2020 10:54 20,8 C 20,0 C 19,4 C 78 % 1010,7 hPa 0,0 l/m 0 min 0 min 73 W/m 16,1 km/h (3 Bft) 97,83 %
26.07.2020 10:56 20,7 C 22,8 C 22,2 C 79 % 1010,7 hPa 0,0 l/m 2 min 0 min 521 W/m 9,7 km/h (2 Bft) 97,87 %
26.07.2020 10:58 20,7 C 24,4 C 23,3 C 79 % 1010,8 hPa 0,0 l/m 2 min 0 min 781 W/m 16,1 km/h (3 Bft) 97,87 %
26.07.2020 11:00 20,8 C 25,0 C 23,3 C 79 % 1010,8 hPa 0,0 l/m 2 min 0 min 803 W/m 16,1 km/h (3 Bft) 97,87 %
26.07.2020 11:02 20,9 C 25,6 C 23,3 C 78 % 1010,8 hPa 0,0 l/m 2 min 0 min 878 W/m 16,1 km/h (3 Bft) 95,74 %
26.07.2020 11:04 21,0 C 25,6 C 22,8 C 77 % 1010,8 hPa 0,0 l/m 2 min 0 min 465 W/m 16,1 km/h (3 Bft) 97,83 %
26.07.2020 11:06 21,1 C 25,6 C 22,8 C 77 % 1010,8 hPa 0,0 l/m 2 min 0 min 847 W/m 19,3 km/h (3 Bft) 97,87 %
26.07.2020 11:08 21,2 C 25,0 C 22,2 C 77 % 1011,0 hPa 0,0 l/m 2 min 0 min 879 W/m 19,3 km/h (3 Bft) 97,73 %
26.07.2020 11:10 21,3 C 23,3 C 21,7 C 76 % 1010,9 hPa 0,0 l/m 2 min 0 min 614 W/m 12,9 km/h (3 Bft) 97,87 %
26.07.2020 11:12 21,3 C 22,2 C 21,1 C 76 % 1010,9 hPa 0,0 l/m 0 min 0 min 167 W/m 12,9 km/h (3 Bft) 97,87 %
26.07.2020 11:14 21,3 C 23,3 C 21,1 C 76 % 1010,9 hPa 0,0 l/m 2 min 0 min 381 W/m 12,9 km/h (3 Bft) 97,87 %
26.07.2020 11:16 21,3 C 25,0 C 21,1 C 76 % 1011,0 hPa 0,0 l/m 2 min 0 min 845 W/m 19,3 km/h (3 Bft) 97,87 %
26.07.2020 11:18 21,4 C 26,1 C 21,1 C 76 % 1011,0 hPa 0,0 l/m 2 min 0 min 866 W/m 22,5 km/h (4 Bft) 97,87 %
26.07.2020 11:20 21,5 C 25,0 C 21,7 C 76 % 1011,0 hPa 0,0 l/m 2 min 0 min 694 W/m 12,9 km/h (3 Bft) 95,65 %
26.07.2020 11:22 21,5 C 22,8 C 21,1 C 75 % 1011,0 hPa 0,0 l/m 0 min 0 min 169 W/m 22,5 km/h (4 Bft) 97,87 %
26.07.2020 11:24 21,4 C 23,3 C 20,6 C 75 % 1010,9 hPa 0,0 l/m 0 min 0 min 240 W/m 16,1 km/h (3 Bft) 97,87 %
26.07.2020 11:26 21,5 C 25,6 C 21,1 C 75 % 1011,0 hPa 0,0 l/m 2 min 0 min 880 W/m 16,1 km/h (3 Bft) 97,87 %
26.07.2020 11:28 21,7 C 26,7 C 21,7 C 76 % 1011,1 hPa 0,0 l/m 2 min 0 min 868 W/m 19,3 km/h (3 Bft) 97,87 %
26.07.2020 11:30 21,8 C 26,1 C 21,7 C 75 % 1011,1 hPa 0,0 l/m 2 min 0 min 894 W/m 9,7 km/h (2 Bft) 97,83 %
26.07.2020 11:32 21,8 C 25,6 C 21,1 C 75 % 1011,1 hPa 0,0 l/m 2 min 0 min 904 W/m 16,1 km/h (3 Bft) 97,87 %
26.07.2020 11:34 21,9 C 26,7 C 21,7 C 73 % 1011,2 hPa 0,0 l/m 2 min 0 min 930 W/m 12,9 km/h (3 Bft) 97,87 %
26.07.2020 11:36 22,0 C 26,7 C 21,7 C 73 % 1011,2 hPa 0,0 l/m 2 min 0 min 903 W/m 16,1 km/h (3 Bft) 97,87 %
26.07.2020 11:38 22,2 C 26,7 C 21,7 C 73 % 1011,4 hPa 0,0 l/m 2 min 0 min 861 W/m 19,3 km/h (3 Bft) 96,00 %
26.07.2020 11:40 22,2 C 25,6 C 21,7 C 71 % 1011,3 hPa 0,0 l/m 2 min 0 min 862 W/m 29,0 km/h (5 Bft) 100,00 %
26.07.2020 11:42 22,2 C 26,7 C 21,7 C 71 % 1011,3 hPa 0,0 l/m 2 min 0 min 910 W/m 16,1 km/h (3 Bft) 95,74 %
26.07.2020 11:44 22,4 C 27,2 C 21,7 C 73 % 1011,3 hPa 0,0 l/m 2 min 0 min 969 W/m 16,1 km/h (3 Bft) 100,00 %
26.07.2020 11:46 22,4 C 26,1 C 21,7 C 70 % 1011,3 hPa 0,0 l/m 2 min 0 min 932 W/m 22,5 km/h (4 Bft) 100,00 %
26.07.2020 11:48 22,5 C 25,0 C 21,7 C 70 % 1011,4 hPa 0,0 l/m 2 min 0 min 820 W/m 22,5 km/h (4 Bft) 100,00 %
26.07.2020 11:50 22,5 C 22,8 C 21,1 C 70 % 1011,4 hPa 0,0 l/m 0 min 0 min 172 W/m 16,1 km/h (3 Bft) 97,87 %
26.07.2020 11:52 22,4 C 22,8 C 21,1 C 70 % 1011,4 hPa 0,0 l/m 0 min 0 min 155 W/m 22,5 km/h (4 Bft) 100,00 %
26.07.2020 11:54 22,4 C 25,0 C 21,1 C 72 % 1011,4 hPa 0,0 l/m 0 min 0 min 278 W/m 12,9 km/h (3 Bft) 100,00 %
26.07.2020 11:56 22,4 C 26,7 C 21,7 C 71 % 1011,4 hPa 0,0 l/m 2 min 0 min 894 W/m 12,9 km/h (3 Bft) 97,87 %
26.07.2020 11:58 22,6 C 26,7 C 21,7 C 72 % 1011,4 hPa 0,0 l/m 2 min 0 min 912 W/m 9,7 km/h (2 Bft) 100,00 %
26.07.2020 12:00 22,6 C 26,7 C 21,7 C 72 % 1011,5 hPa 0,0 l/m 2 min 0 min 927 W/m 19,3 km/h (3 Bft) 97,87 %
26.07.2020 12:02 22,6 C 27,2 C 21,7 C 69 % 1011,4 hPa 0,0 l/m 2 min 0 min 958 W/m 22,5 km/h (4 Bft) 100,00 %
26.07.2020 12:04 22,7 C 27,2 C 22,2 C 70 % 1011,5 hPa 0,0 l/m 2 min 0 min 1054 W/m 16,1 km/h (3 Bft) 97,87 %
26.07.2020 12:08 22,8 C 26,1 C 22,2 C 69 % 1011,5 hPa 0,0 l/m 4 min 0 min 1065 W/m 12,9 km/h (3 Bft) 96,81 %
26.07.2020 12:10 22,9 C 27,2 C 22,8 C 70 % 1011,6 hPa 0,0 l/m 2 min 0 min 1073 W/m 25,7 km/h (4 Bft) 97,87 %
26.07.2020 12:12 23,0 C 26,7 C 22,8 C 69 % 1011,5 hPa 0,0 l/m 2 min 0 min 1081 W/m 25,7 km/h (4 Bft) 97,87 %
26.07.2020 12:14 23,1 C 27,2 C 22,8 C 68 % 1011,5 hPa 0,0 l/m 2 min 0 min 802 W/m 16,1 km/h (3 Bft) 95,65 %
26.07.2020 12:16 23,2 C 26,1 C 22,8 C 68 % 1011,5 hPa 0,0 l/m 2 min 0 min 804 W/m 25,7 km/h (4 Bft) 97,87 %
26.07.2020 12:18 23,1 C 25,6 C 22,8 C 67 % 1011,5 hPa 0,0 l/m 2 min 0 min 559 W/m 16,1 km/h (3 Bft) 97,87 %
26.07.2020 12:20 23,2 C 27,2 C 22,8 C 68 % 1011,6 hPa 0,0 l/m 2 min 0 min 831 W/m 12,9 km/h (3 Bft) 95,74 %
26.07.2020 12:22 23,3 C 27,8 C 22,8 C 68 % 1011,5 hPa 0,0 l/m 2 min 0 min 949 W/m 22,5 km/h (4 Bft) 97,87 %
26.07.2020 12:24 23,3 C 27,2 C 22,2 C 67 % 1011,5 hPa 0,0 l/m 2 min 0 min 1012 W/m 19,3 km/h (3 Bft) 95,74 %
26.07.2020 12:26 23,4 C 27,8 C 22,8 C 67 % 1011,6 hPa 0,0 l/m 2 min 0 min 1005 W/m 16,1 km/h (3 Bft) 97,83 %
26.07.2020 12:28 23,6 C 28,3 C 22,8 C 67 % 1011,4 hPa 0,0 l/m 2 min 0 min 962 W/m 12,9 km/h (3 Bft) 97,87 %
26.07.2020 12:30 23,7 C 28,3 C 22,8 C 67 % 1011,5 hPa 0,0 l/m 2 min 0 min 944 W/m 12,9 km/h (3 Bft) 95,74 %
26.07.2020 12:32 23,8 C 28,9 C 22,8 C 67 % 1011,5 hPa 0,0 l/m 2 min 0 min 940 W/m 22,5 km/h (4 Bft) 97,87 %
26.07.2020 12:34 23,9 C 28,3 C 22,8 C 66 % 1011,5 hPa 0,0 l/m 2 min 0 min 939 W/m 22,5 km/h (4 Bft) 97,87 %
26.07.2020 12:36 24,0 C 27,8 C 22,8 C 66 % 1011,5 hPa 0,0 l/m 2 min 0 min 957 W/m 12,9 km/h (3 Bft) 97,87 %
26.07.2020 12:38 24,1 C 28,9 C 23,3 C 65 % 1011,5 hPa 0,0 l/m 2 min 0 min 1001 W/m 9,7 km/h (2 Bft) 95,65 %
26.07.2020 12:40 24,2 C 30,0 C 23,3 C 67 % 1011,6 hPa 0,0 l/m 2 min 0 min 1022 W/m 16,1 km/h (3 Bft) 95,74 %
26.07.2020 12:42 24,3 C 29,4 C 23,3 C 65 % 1011,5 hPa 0,0 l/m 2 min 0 min 1052 W/m 25,7 km/h (4 Bft) 93,62 %
26.07.2020 12:44 24,4 C 28,3 C 23,3 C 63 % 1011,5 hPa 0,0 l/m 2 min 0 min 1060 W/m 29,0 km/h (5 Bft) 95,74 %
26.07.2020 12:46 24,4 C 28,9 C 23,3 C 64 % 1011,6 hPa 0,0 l/m 2 min 0 min 1062 W/m 22,5 km/h (4 Bft) 95,74 %
26.07.2020 12:48 24,4 C 28,3 C 23,3 C 63 % 1011,5 hPa 0,0 l/m 2 min 0 min 1022 W/m 25,7 km/h (4 Bft) 95,74 %
26.07.2020 12:50 24,4 C 27,8 C 23,3 C 63 % 1011,6 hPa 0,0 l/m 2 min 0 min 628 W/m 19,3 km/h (3 Bft) 95,65 %
26.07.2020 12:52 24,4 C 27,8 C 23,3 C 63 % 1011,6 hPa 0,0 l/m 2 min 0 min 1043 W/m 22,5 km/h (4 Bft) 97,87 %
26.07.2020 12:54 24,4 C 26,1 C 23,3 C 63 % 1011,6 hPa 0,0 l/m 2 min 0 min 1044 W/m 22,5 km/h (4 Bft) 95,74 %
26.07.2020 12:56 24,4 C 26,1 C 22,8 C 63 % 1011,6 hPa 0,0 l/m 2 min 0 min 1044 W/m 22,5 km/h (4 Bft) 97,87 %
26.07.2020 12:58 24,3 C 27,2 C 22,8 C 63 % 1011,6 hPa 0,0 l/m 2 min 0 min 924 W/m 25,7 km/h (4 Bft) 95,74 %
26.07.2020 13:00 24,3 C 27,8 C 22,8 C 63 % 1011,7 hPa 0,0 l/m 2 min 0 min 950 W/m 19,3 km/h (3 Bft) 95,74 %
26.07.2020 13:02 24,3 C 28,3 C 22,8 C 63 % 1011,7 hPa 0,0 l/m 2 min 0 min 973 W/m 16,1 km/h (3 Bft) 97,83 %
26.07.2020 13:04 24,3 C 27,8 C 23,3 C 63 % 1011,7 hPa 0,0 l/m 2 min 0 min 976 W/m 22,5 km/h (4 Bft) 97,87 %
26.07.2020 13:06 24,3 C 28,9 C 23,3 C 63 % 1011,6 hPa 0,0 l/m 2 min 0 min 948 W/m 22,5 km/h (4 Bft) 97,87 %
26.07.2020 13:08 24,4 C 28,9 C 23,3 C 63 % 1011,7 hPa 0,0 l/m 2 min 0 min 904 W/m 12,9 km/h (3 Bft) 97,87 %
26.07.2020 13:10 24,4 C 27,8 C 23,3 C 61 % 1011,8 hPa 0,0 l/m 2 min 0 min 936 W/m 35,4 km/h (5 Bft) 97,78 %
26.07.2020 13:12 24,4 C 26,7 C 23,3 C 62 % 1011,7 hPa 0,0 l/m 2 min 0 min 902 W/m 19,3 km/h (3 Bft) 97,87 %
26.07.2020 13:14 24,4 C 27,8 C 23,3 C 63 % 1011,8 hPa 0,0 l/m 2 min 0 min 935 W/m 12,9 km/h (3 Bft) 97,87 %
26.07.2020 13:16 24,4 C 27,8 C 23,3 C 63 % 1011,6 hPa 0,0 l/m 2 min 0 min 585 W/m 16,1 km/h (3 Bft) 97,83 %
26.07.2020 13:18 24,4 C 26,7 C 23,3 C 63 % 1011,6 hPa 0,0 l/m 0 min 0 min 327 W/m 16,1 km/h (3 Bft) 97,87 %
26.07.2020 13:20 24,4 C 26,7 C 23,3 C 64 % 1011,6 hPa 0,0 l/m 0 min 0 min 353 W/m 12,9 km/h (3 Bft) 95,74 %
26.07.2020 13:22 24,4 C 27,2 C 23,3 C 65 % 1011,6 hPa 0,0 l/m 0 min 0 min 384 W/m 12,9 km/h (3 Bft) 97,87 %
26.07.2020 13:24 24,6 C 28,9 C 23,3 C 66 % 1011,7 hPa 0,0 l/m 2 min 0 min 914 W/m 9,7 km/h (2 Bft) 97,87 %
26.07.2020 13:26 24,6 C 29,4 C 23,9 C 63 % 1011,8 hPa 0,0 l/m 2 min 0 min 960 W/m 12,9 km/h (3 Bft) 97,87 %
26.07.2020 13:28 24,7 C 29,4 C 23,9 C 62 % 1011,7 hPa 0,0 l/m 2 min 0 min 947 W/m 16,1 km/h (3 Bft) 97,83 %
26.07.2020 13:30 24,7 C 29,4 C 23,9 C 61 % 1011,6 hPa 0,0 l/m 2 min 0 min 941 W/m 12,9 km/h (3 Bft) 97,87 %
26.07.2020 13:32 24,8 C 28,9 C 23,9 C 61 % 1011,6 hPa 0,0 l/m 2 min 0 min 877 W/m 22,5 km/h (4 Bft) 95,74 %
26.07.2020 13:34 24,8 C 28,3 C 23,3 C 61 % 1011,8 hPa 0,0 l/m 2 min 0 min 865 W/m 22,5 km/h (4 Bft) 97,87 %
26.07.2020 13:36 24,8 C 28,3 C 23,3 C 60 % 1011,8 hPa 0,0 l/m 2 min 0 min 911 W/m 16,1 km/h (3 Bft) 97,87 %
26.07.2020 13:38 24,8 C 27,8 C 23,3 C 59 % 1011,8 hPa 0,0 l/m 2 min 0 min 954 W/m 25,7 km/h (4 Bft) 100,00 %
26.07.2020 13:40 24,8 C 28,3 C 23,3 C 60 % 1011,9 hPa 0,0 l/m 2 min 0 min 936 W/m 19,3 km/h (3 Bft) 100,00 %
26.07.2020 13:42 24,8 C 28,9 C 23,9 C 62 % 1011,9 hPa 0,0 l/m 2 min 0 min 958 W/m 19,3 km/h (3 Bft) 100,00 %
26.07.2020 13:44 24,8 C 28,9 C 23,9 C 62 % 1011,7 hPa 0,0 l/m 2 min 0 min 959 W/m 16,1 km/h (3 Bft) 97,92 %
26.07.2020 13:46 24,9 C 29,4 C 24,4 C 60 % 1011,6 hPa 0,0 l/m 2 min 0 min 961 W/m 16,1 km/h (3 Bft) 100,00 %
26.07.2020 13:48 24,9 C 28,9 C 24,4 C 61 % 1011,8 hPa 0,0 l/m 2 min 0 min 994 W/m 16,1 km/h (3 Bft) 100,00 %
26.07.2020 13:50 24,9 C 28,3 C 25,0 C 59 % 1011,8 hPa 0,0 l/m 2 min 0 min 990 W/m 22,5 km/h (4 Bft) 100,00 %
26.07.2020 13:52 25,1 C 29,4 C 25,6 C 61 % 1011,7 hPa 0,0 l/m 2 min 0 min 969 W/m 12,9 km/h (3 Bft) 97,87 %
26.07.2020 13:54 25,0 C 28,3 C 26,1 C 59 % 1011,8 hPa 0,0 l/m 2 min 0 min 957 W/m 16,1 km/h (3 Bft) 95,74 %
26.07.2020 13:56 25,1 C 27,8 C 26,7 C 60 % 1011,8 hPa 0,0 l/m 2 min 0 min 962 W/m 12,9 km/h (3 Bft) 100,00 %
26.07.2020 13:58 25,1 C 27,2 C 26,7 C 61 % 1011,9 hPa 0,0 l/m 2 min 0 min 926 W/m 12,9 km/h (3 Bft) 100,00 %
26.07.2020 14:00 25,1 C 27,8 C 26,1 C 61 % 1011,8 hPa 0,0 l/m 2 min 0 min 946 W/m 16,1 km/h (3 Bft) 97,87 %
26.07.2020 14:02 25,1 C 27,2 C 26,1 C 60 % 1011,8 hPa 0,0 l/m 2 min 0 min 997 W/m 12,9 km/h (3 Bft) 97,83 %
26.07.2020 14:04 25,0 C 25,0 C 24,4 C 59 % 1011,9 hPa 0,0 l/m 2 min 0 min 835 W/m 29,0 km/h (5 Bft) 97,87 %
26.07.2020 14:06 24,9 C 25,6 C 24,4 C 59 % 1011,8 hPa 0,0 l/m 0 min 0 min 265 W/m 16,1 km/h (3 Bft) 97,87 %
26.07.2020 14:08 24,8 C 26,1 C 24,4 C 60 % 1011,9 hPa 0,0 l/m 2 min 0 min 716 W/m 19,3 km/h (3 Bft) 97,87 %
26.07.2020 14:10 24,7 C 24,4 C 23,9 C 59 % 1011,9 hPa 0,0 l/m 2 min 0 min 502 W/m 19,3 km/h (3 Bft) 97,87 %
26.07.2020 14:12 24,5 C 24,4 C 23,3 C 60 % 1011,8 hPa 0,0 l/m 0 min 0 min 255 W/m 12,9 km/h (3 Bft) 97,87 %
26.07.2020 14:14 24,4 C 25,0 C 23,3 C 60 % 1011,8 hPa 0,0 l/m 0 min 0 min 276 W/m 9,7 km/h (2 Bft) 100,00 %
26.07.2020 14:16 24,3 C 25,6 C 23,3 C 60 % 1011,8 hPa 0,0 l/m 0 min 0 min 383 W/m 9,7 km/h (2 Bft) 97,87 %
26.07.2020 14:18 24,3 C 26,7 C 23,9 C 60 % 1011,9 hPa 0,0 l/m 2 min 0 min 589 W/m 22,5 km/h (4 Bft) 95,74 %
26.07.2020 14:20 24,3 C 27,2 C 24,4 C 60 % 1011,8 hPa 0,0 l/m 2 min 0 min 852 W/m 16,1 km/h (3 Bft) 93,62 %
26.07.2020 14:22 24,3 C 26,7 C 23,9 C 59 % 1011,8 hPa 0,0 l/m 2 min 0 min 782 W/m 22,5 km/h (4 Bft) 97,87 %
26.07.2020 14:24 24,4 C 25,6 C 23,9 C 61 % 1011,9 hPa 0,0 l/m 0 min 0 min 404 W/m 12,9 km/h (3 Bft) 97,87 %
26.07.2020 14:26 24,3 C 25,0 C 23,3 C 60 % 1011,9 hPa 0,0 l/m 0 min 0 min 334 W/m 29,0 km/h (5 Bft) 97,83 %
26.07.2020 14:28 24,3 C 25,0 C 23,3 C 62 % 1011,8 hPa 0,0 l/m 0 min 0 min 378 W/m 6,4 km/h (2 Bft) 97,87 %
26.07.2020 14:30 24,2 C 25,0 C 23,3 C 61 % 1011,9 hPa 0,0 l/m 0 min 0 min 383 W/m 16,1 km/h (3 Bft) 95,74 %
26.07.2020 14:32 24,2 C 25,0 C 23,3 C 62 % 1011,9 hPa 0,0 l/m 0 min 0 min 363 W/m 16,1 km/h (3 Bft) 93,62 %
26.07.2020 14:34 24,1 C 25,0 C 23,3 C 62 % 1012,1 hPa 0,0 l/m 2 min 0 min 486 W/m 12,9 km/h (3 Bft) 97,87 %
26.07.2020 14:36 24,1 C 25,0 C 23,3 C 62 % 1012,0 hPa 0,0 l/m 2 min 0 min 461 W/m 22,5 km/h (4 Bft) 95,65 %
26.07.2020 14:38 24,1 C 25,0 C 23,3 C 61 % 1012,0 hPa 0,0 l/m 0 min 0 min 382 W/m 22,5 km/h (4 Bft) 97,87 %
26.07.2020 14:40 24,0 C 23,9 C 23,3 C 60 % 1012,2 hPa 0,0 l/m 0 min 0 min 385 W/m 38,6 km/h (5 Bft) 97,87 %
26.07.2020 14:42 23,9 C 23,3 C 22,8 C 61 % 1012,2 hPa 0,0 l/m 0 min 0 min 330 W/m 32,2 km/h (5 Bft) 95,74 %
26.07.2020 14:44 23,8 C 23,3 C 22,8 C 62 % 1012,1 hPa 0,0 l/m 0 min 0 min 218 W/m 16,1 km/h (3 Bft) 89,36 %
26.07.2020 14:46 23,8 C 23,3 C 22,2 C 63 % 1012,1 hPa 0,0 l/m 0 min 0 min 205 W/m 19,3 km/h (3 Bft) 93,62 %
26.07.2020 14:48 23,7 C 23,9 C 22,2 C 63 % 1012,1 hPa 0,0 l/m 0 min 0 min 295 W/m 19,3 km/h (3 Bft) 95,74 %
26.07.2020 14:50 23,6 C 23,3 C 22,2 C 63 % 1012,3 hPa 0,0 l/m 0 min 0 min 322 W/m 19,3 km/h (3 Bft) 95,74 %
26.07.2020 14:52 23,6 C 23,3 C 22,2 C 63 % 1012,5 hPa 0,0 l/m 0 min 0 min 270 W/m 16,1 km/h (3 Bft) 95,74 %
26.07.2020 14:54 23,4 C 23,3 C 22,2 C 64 % 1012,3 hPa 0,0 l/m 0 min 0 min 270 W/m 16,1 km/h (3 Bft) 97,87 %
26.07.2020 14:56 23,4 C 22,8 C 22,2 C 65 % 1012,3 hPa 0,0 l/m 0 min 0 min 223 W/m 16,1 km/h (3 Bft) 95,74 %
26.07.2020 14:58 23,3 C 22,2 C 22,2 C 65 % 1012,5 hPa 0,0 l/m 0 min 0 min 183 W/m 25,7 km/h (4 Bft) 95,65 %
26.07.2020 15:00 23,2 C 22,2 C 21,7 C 66 % 1012,6 hPa 0,0 l/m 0 min 0 min 173 W/m 9,7 km/h (2 Bft) 93,62 %
26.07.2020 15:02 23,1 C 21,7 C 21,7 C 66 % 1012,7 hPa 0,0 l/m 0 min 0 min 183 W/m 22,5 km/h (4 Bft) 95,74 %
26.07.2020 15:04 23,0 C 20,6 C 21,1 C 67 % 1012,7 hPa 0,0 l/m 0 min 0 min 209 W/m 38,6 km/h (5 Bft) 95,74 %
26.07.2020 15:06 22,8 C 20,6 C 20,6 C 68 % 1012,7 hPa 0,0 l/m 0 min 0 min 261 W/m 16,1 km/h (3 Bft) 93,62 %
26.07.2020 15:08 22,6 C 20,6 C 20,6 C 69 % 1012,7 hPa 0,0 l/m 0 min 0 min 327 W/m 22,5 km/h (4 Bft) 93,62 %
26.07.2020 15:10 22,4 C 21,1 C 20,6 C 71 % 1012,7 hPa 0,0 l/m 0 min 0 min 367 W/m 25,7 km/h (4 Bft) 95,65 %
26.07.2020 15:12 22,2 C 21,1 C 20,6 C 71 % 1012,7 hPa 0,0 l/m 0 min 0 min 334 W/m 12,9 km/h (3 Bft) 97,87 %
26.07.2020 15:14 22,1 C 21,1 C 21,1 C 72 % 1012,7 hPa 0,0 l/m 0 min 0 min 318 W/m 19,3 km/h (3 Bft) 97,87 %
26.07.2020 15:16 22,0 C 21,7 C 21,1 C 72 % 1012,7 hPa 0,0 l/m 0 min 0 min 367 W/m 16,1 km/h (3 Bft) 97,87 %
26.07.2020 15:18 21,9 C 22,2 C 21,1 C 72 % 1012,7 hPa 0,0 l/m 2 min 0 min 394 W/m 19,3 km/h (3 Bft) 95,74 %
26.07.2020 15:20 21,8 C 22,2 C 21,1 C 72 % 1012,7 hPa 0,0 l/m 2 min 0 min 402 W/m 22,5 km/h (4 Bft) 97,83 %
26.07.2020 15:22 21,8 C 22,8 C 21,7 C 71 % 1012,7 hPa 0,0 l/m 2 min 0 min 399 W/m 19,3 km/h (3 Bft) 95,74 %
26.07.2020 15:24 21,8 C 23,3 C 21,7 C 71 % 1012,7 hPa 0,0 l/m 2 min 0 min 407 W/m 19,3 km/h (3 Bft) 100,00 %
26.07.2020 15:26 21,8 C 22,8 C 21,7 C 71 % 1012,6 hPa 0,0 l/m 0 min 0 min 360 W/m 16,1 km/h (3 Bft) 100,00 %
26.07.2020 15:28 21,8 C 22,2 C 21,7 C 69 % 1012,6 hPa 0,0 l/m 0 min 0 min 338 W/m 25,7 km/h (4 Bft) 100,00 %
26.07.2020 15:30 21,8 C 22,8 C 21,7 C 70 % 1012,6 hPa 0,0 l/m 0 min 0 min 341 W/m 12,9 km/h (3 Bft) 100,00 %
26.07.2020 15:32 21,8 C 22,8 C 21,7 C 69 % 1012,6 hPa 0,0 l/m 0 min 0 min 371 W/m 22,5 km/h (4 Bft) 97,87 %
26.07.2020 15:34 21,8 C 23,9 C 21,7 C 71 % 1012,6 hPa 0,0 l/m 2 min 0 min 482 W/m 6,4 km/h (2 Bft) 100,00 %
26.07.2020 15:36 21,9 C 23,3 C 21,7 C 70 % 1012,7 hPa 0,0 l/m 2 min 0 min 515 W/m 25,7 km/h (4 Bft) 100,00 %
26.07.2020 15:38 21,9 C 23,3 C 21,7 C 69 % 1012,7 hPa 0,0 l/m 2 min 0 min 427 W/m 19,3 km/h (3 Bft) 97,87 %
26.07.2020 15:40 22,0 C 23,3 C 21,7 C 69 % 1012,6 hPa 0,0 l/m 2 min 0 min 486 W/m 29,0 km/h (5 Bft) 100,00 %
26.07.2020 15:42 22,1 C 24,4 C 22,2 C 70 % 1012,7 hPa 0,0 l/m 2 min 0 min 522 W/m 19,3 km/h (3 Bft) 100,00 %
26.07.2020 15:44 22,2 C 26,1 C 22,8 C 70 % 1012,6 hPa 0,0 l/m 2 min 0 min 613 W/m 16,1 km/h (3 Bft) 97,83 %
26.07.2020 15:46 22,3 C 27,2 C 22,8 C 69 % 1012,6 hPa 0,0 l/m 2 min 0 min 925 W/m 16,1 km/h (3 Bft) 100,00 %
26.07.2020 15:48 22,4 C 27,8 C 23,3 C 70 % 1012,6 hPa 0,0 l/m 2 min 0 min 883 W/m 19,3 km/h (3 Bft) 97,87 %
26.07.2020 15:50 22,6 C 27,8 C 23,3 C 68 % 1012,6 hPa 0,0 l/m 2 min 0 min 952 W/m 16,1 km/h (3 Bft) 100,00 %
26.07.2020 15:52 22,7 C 27,8 C 23,3 C 68 % 1012,6 hPa 0,0 l/m 2 min 0 min 889 W/m 16,1 km/h (3 Bft) 97,87 %
26.07.2020 15:54 22,9 C 27,8 C 23,3 C 69 % 1012,6 hPa 0,0 l/m 2 min 0 min 798 W/m 16,1 km/h (3 Bft) 95,74 %
26.07.2020 15:56 23,1 C 27,8 C 23,3 C 68 % 1012,6 hPa 0,0 l/m 2 min 0 min 806 W/m 16,1 km/h (3 Bft) 97,83 %
26.07.2020 15:58 23,3 C 27,2 C 23,3 C 68 % 1012,5 hPa 0,0 l/m 2 min 0 min 660 W/m 12,9 km/h (3 Bft) 97,87 %
26.07.2020 16:00 23,4 C 26,7 C 23,3 C 67 % 1012,5 hPa 0,0 l/m 2 min 0 min 484 W/m 19,3 km/h (3 Bft) 97,87 %
26.07.2020 16:02 23,5 C 25,6 C 22,8 C 67 % 1012,6 hPa 0,0 l/m 2 min 0 min 405 W/m 6,4 km/h (2 Bft) 97,87 %
26.07.2020 16:04 23,6 C 25,0 C 22,8 C 67 % 1012,5 hPa 0,0 l/m 0 min 0 min 289 W/m 9,7 km/h (2 Bft) 97,87 %
26.07.2020 16:06 23,6 C 25,0 C 22,8 C 67 % 1012,7 hPa 0,0 l/m 2 min 0 min 416 W/m 16,1 km/h (3 Bft) 97,87 %
26.07.2020 16:08 23,7 C 26,1 C 22,8 C 67 % 1012,7 hPa 0,0 l/m 2 min 0 min 446 W/m 9,7 km/h (2 Bft) 97,83 %
26.07.2020 16:10 23,7 C 25,6 C 22,8 C 67 % 1012,6 hPa 0,0 l/m 2 min 0 min 442 W/m 9,7 km/h (2 Bft) 97,87 %
26.07.2020 16:12 23,8 C 24,4 C 22,8 C 67 % 1012,6 hPa 0,0 l/m 0 min 0 min 239 W/m 12,9 km/h (3 Bft) 97,87 %
26.07.2020 16:14 23,8 C 23,9 C 22,8 C 66 % 1012,7 hPa 0,0 l/m 0 min 0 min 217 W/m 12,9 km/h (3 Bft) 93,62 %
26.07.2020 16:16 23,8 C 23,9 C 22,8 C 67 % 1012,7 hPa 0,0 l/m 0 min 0 min 219 W/m 9,7 km/h (2 Bft) 97,87 %
26.07.2020 16:18 23,8 C 23,3 C 22,2 C 67 % 1012,7 hPa 0,0 l/m 0 min 0 min 222 W/m 12,9 km/h (3 Bft) 97,87 %
26.07.2020 16:20 23,8 C 23,3 C 22,2 C 67 % 1012,7 hPa 0,0 l/m 0 min 0 min 220 W/m 6,4 km/h (2 Bft) 97,83 %
26.07.2020 16:22 23,7 C 23,3 C 22,2 C 67 % 1012,7 hPa 0,0 l/m 0 min 0 min 214 W/m 6,4 km/h (2 Bft) 97,87 %
26.07.2020 16:24 23,7 C 23,3 C 22,2 C 67 % 1012,8 hPa 0,0 l/m 0 min 0 min 229 W/m 16,1 km/h (3 Bft) 95,74 %
26.07.2020 16:26 23,7 C 23,3 C 22,2 C 67 % 1012,7 hPa 0,0 l/m 0 min 0 min 243 W/m 12,9 km/h (3 Bft) 97,87 %
26.07.2020 16:28 23,6 C 23,3 C 22,2 C 66 % 1012,7 hPa 0,0 l/m 0 min 0 min 253 W/m 19,3 km/h (3 Bft) 97,87 %
26.07.2020 16:30 23,6 C 23,3 C 22,2 C 66 % 1012,8 hPa 0,0 l/m 0 min 0 min 313 W/m 16,1 km/h (3 Bft) 97,87 %
26.07.2020 16:32 23,6 C 23,9 C 22,8 C 67 % 1012,8 hPa 0,0 l/m 0 min 0 min 324 W/m 16,1 km/h (3 Bft) 97,83 %
26.07.2020 16:34 23,5 C 23,9 C 22,8 C 66 % 1012,9 hPa 0,0 l/m 2 min 0 min 341 W/m 25,7 km/h (4 Bft) 97,87 %
26.07.2020 16:36 23,5 C 25,0 C 23,3 C 67 % 1012,9 hPa 0,0 l/m 2 min 0 min 364 W/m 16,1 km/h (3 Bft) 97,87 %
26.07.2020 16:38 23,5 C 25,6 C 23,3 C 67 % 1012,8 hPa 0,0 l/m 2 min 0 min 414 W/m 16,1 km/h (3 Bft) 97,87 %
26.07.2020 16:40 23,6 C 26,1 C 23,3 C 68 % 1012,9 hPa 0,0 l/m 2 min 0 min 417 W/m 9,7 km/h (2 Bft) 97,87 %
26.07.2020 16:42 23,6 C 25,6 C 23,3 C 67 % 1012,9 hPa 0,0 l/m 2 min 0 min 460 W/m 12,9 km/h (3 Bft) 95,65 %
26.07.2020 16:44 23,7 C 25,6 C 23,3 C 67 % 1012,9 hPa 0,0 l/m 2 min 0 min 401 W/m 9,7 km/h (2 Bft) 100,00 %
26.07.2020 16:46 23,7 C 25,0 C 23,3 C 65 % 1013,0 hPa 0,0 l/m 2 min 0 min 333 W/m 19,3 km/h (3 Bft) 100,00 %
26.07.2020 16:48 23,7 C 25,0 C 23,3 C 63 % 1013,0 hPa 0,0 l/m 2 min 0 min 416 W/m 19,3 km/h (3 Bft) 100,00 %
26.07.2020 16:50 23,7 C 25,6 C 23,3 C 62 % 1013,0 hPa 0,0 l/m 2 min 0 min 457 W/m 19,3 km/h (3 Bft) 97,87 %
26.07.2020 16:52 23,8 C 25,6 C 23,3 C 62 % 1013,0 hPa 0,0 l/m 2 min 0 min 482 W/m 16,1 km/h (3 Bft) 100,00 %
26.07.2020 16:54 23,8 C 25,6 C 23,3 C 62 % 1012,9 hPa 0,0 l/m 2 min 0 min 353 W/m 12,9 km/h (3 Bft) 97,83 %
26.07.2020 16:56 23,9 C 26,7 C 23,3 C 64 % 1012,9 hPa 0,0 l/m 0 min 0 min 295 W/m 6,4 km/h (2 Bft) 97,87 %
26.07.2020 16:58 24,0 C 26,7 C 23,3 C 63 % 1013,0 hPa 0,0 l/m 0 min 0 min 295 W/m 6,4 km/h (2 Bft) 100,00 %
26.07.2020 17:00 24,1 C 26,1 C 23,3 C 62 % 1013,0 hPa 0,0 l/m 0 min 0 min 295 W/m 19,3 km/h (3 Bft) 97,87 %
26.07.2020 17:02 24,2 C 26,7 C 23,3 C 63 % 1013,0 hPa 0,0 l/m 2 min 0 min 316 W/m 12,9 km/h (3 Bft) 97,87 %
26.07.2020 17:04 24,3 C 27,2 C 23,9 C 63 % 1013,0 hPa 0,0 l/m 2 min 0 min 479 W/m 16,1 km/h (3 Bft) 100,00 %
26.07.2020 17:06 24,3 C 27,8 C 23,9 C 62 % 1013,1 hPa 0,0 l/m 2 min 0 min 724 W/m 12,9 km/h (3 Bft) 100,00 %
26.07.2020 17:08 24,5 C 27,2 C 23,9 C 61 % 1013,1 hPa 0,0 l/m 2 min 0 min 632 W/m 16,1 km/h (3 Bft) 97,87 %
26.07.2020 17:10 24,6 C 26,1 C 23,9 C 60 % 1013,3 hPa 0,0 l/m 2 min 0 min 462 W/m 16,1 km/h (3 Bft) 100,00 %
26.07.2020 17:12 24,6 C 26,1 C 23,9 C 60 % 1013,2 hPa 0,0 l/m 0 min 0 min 241 W/m 19,3 km/h (3 Bft) 97,87 %
26.07.2020 17:14 24,6 C 26,1 C 23,9 C 60 % 1013,2 hPa 0,0 l/m 0 min 0 min 241 W/m 12,9 km/h (3 Bft) 97,87 %
26.07.2020 17:16 24,6 C 25,0 C 23,3 C 60 % 1013,3 hPa 0,0 l/m 0 min 0 min 171 W/m 12,9 km/h (3 Bft) 97,87 %
26.07.2020 17:18 24,6 C 24,4 C 22,8 C 60 % 1013,2 hPa 0,0 l/m 0 min 0 min 169 W/m 12,9 km/h (3 Bft) 97,83 %
26.07.2020 17:20 24,6 C 23,9 C 22,8 C 61 % 1013,3 hPa 0,0 l/m 0 min 0 min 165 W/m 12,9 km/h (3 Bft) 93,62 %
26.07.2020 17:22 24,5 C 23,9 C 22,8 C 61 % 1013,3 hPa 0,0 l/m 0 min 0 min 148 W/m 9,7 km/h (2 Bft) 95,74 %
26.07.2020 17:24 24,4 C 23,3 C 22,2 C 60 % 1013,2 hPa 0,0 l/m 0 min 0 min 168 W/m 12,9 km/h (3 Bft) 95,74 %
26.07.2020 17:26 24,3 C 23,3 C 22,2 C 60 % 1013,2 hPa 0,0 l/m 0 min 0 min 195 W/m 6,4 km/h (2 Bft) 95,74 %
26.07.2020 17:28 24,3 C 25,0 C 22,8 C 60 % 1013,3 hPa 0,0 l/m 0 min 0 min 237 W/m 9,7 km/h (2 Bft) 95,74 %
26.07.2020 17:30 24,3 C 24,4 C 22,8 C 61 % 1013,3 hPa 0,0 l/m 0 min 0 min 225 W/m 12,9 km/h (3 Bft) 97,83 %
26.07.2020 17:32 24,2 C 23,9 C 22,8 C 61 % 1013,3 hPa 0,0 l/m 0 min 0 min 161 W/m 12,9 km/h (3 Bft) 97,87 %
26.07.2020 17:34 24,2 C 23,3 C 22,8 C 61 % 1013,3 hPa 0,0 l/m 0 min 0 min 136 W/m 6,4 km/h (2 Bft) 95,74 %
26.07.2020 17:36 24,2 C 24,4 C 22,8 C 61 % 1013,3 hPa 0,0 l/m 0 min 0 min 160 W/m 6,4 km/h (2 Bft) 93,62 %
26.07.2020 17:38 24,2 C 23,9 C 22,2 C 61 % 1013,3 hPa 0,0 l/m 0 min 0 min 162 W/m 6,4 km/h (2 Bft) 97,87 %
26.07.2020 17:40 24,1 C 23,3 C 22,2 C 60 % 1013,4 hPa 0,0 l/m 0 min 0 min 140 W/m 19,3 km/h (3 Bft) 93,62 %
26.07.2020 17:42 24,1 C 23,3 C 22,2 C 61 % 1013,3 hPa 0,0 l/m 0 min 0 min 154 W/m 16,1 km/h (3 Bft) 95,65 %
26.07.2020 17:44 23,9 C 23,3 C 22,2 C 61 % 1013,4 hPa 0,0 l/m 0 min 0 min 179 W/m 6,4 km/h (2 Bft) 95,74 %
26.07.2020 17:46 23,9 C 24,4 C 22,2 C 61 % 1013,5 hPa 0,0 l/m 0 min 0 min 202 W/m 9,7 km/h (2 Bft) 95,74 %
26.07.2020 17:48 23,9 C 23,9 C 22,8 C 61 % 1013,4 hPa 0,0 l/m 0 min 0 min 230 W/m 9,7 km/h (2 Bft) 95,74 %
26.07.2020 17:50 23,9 C 23,9 C 22,8 C 60 % 1013,4 hPa 0,0 l/m 0 min 0 min 196 W/m 25,7 km/h (4 Bft) 95,74 %
26.07.2020 17:52 23,9 C 23,9 C 22,8 C 59 % 1013,5 hPa 0,0 l/m 0 min 0 min 181 W/m 22,5 km/h (4 Bft) 93,48 %
26.07.2020 17:54 23,9 C 23,3 C 22,8 C 62 % 1013,5 hPa 0,0 l/m 0 min 0 min 195 W/m 19,3 km/h (3 Bft) 93,62 %
26.07.2020 17:56 23,8 C 24,4 C 22,8 C 63 % 1013,5 hPa 0,0 l/m 0 min 0 min 238 W/m 19,3 km/h (3 Bft) 97,87 %
26.07.2020 17:58 23,8 C 25,0 C 22,8 C 64 % 1013,6 hPa 0,0 l/m 2 min 0 min 332 W/m 22,5 km/h (4 Bft) 97,87 %
26.07.2020 18:00 23,8 C 25,6 C 22,8 C 64 % 1013,6 hPa 0,0 l/m 2 min 0 min 605 W/m 22,5 km/h (4 Bft) 97,87 %
26.07.2020 18:02 23,9 C 26,1 C 22,8 C 64 % 1013,7 hPa 0,0 l/m 2 min 0 min 568 W/m 16,1 km/h (3 Bft) 95,74 %
26.07.2020 18:04 23,9 C 24,4 C 22,8 C 64 % 1013,6 hPa 0,0 l/m 2 min 0 min 472 W/m 22,5 km/h (4 Bft) 96,08 %
26.07.2020 18:08 23,8 C 24,4 C 22,2 C 64 % 1013,7 hPa 0,0 l/m 4 min 0 min 240 W/m 19,3 km/h (3 Bft) 97,87 %
26.07.2020 18:10 23,8 C 23,9 C 22,2 C 64 % 1013,6 hPa 0,0 l/m 2 min 0 min 484 W/m 16,1 km/h (3 Bft) 97,87 %
26.07.2020 18:12 23,7 C 23,9 C 22,2 C 64 % 1013,7 hPa 0,0 l/m 2 min 0 min 393 W/m 16,1 km/h (3 Bft) 97,87 %
26.07.2020 18:14 23,7 C 23,9 C 22,2 C 65 % 1013,7 hPa 0,0 l/m 2 min 0 min 299 W/m 16,1 km/h (3 Bft) 97,87 %
26.07.2020 18:16 23,7 C 23,3 C 21,7 C 64 % 1013,8 hPa 0,0 l/m 0 min 0 min 142 W/m 19,3 km/h (3 Bft) 97,92 %
26.07.2020 18:18 23,6 C 22,8 C 21,7 C 64 % 1013,7 hPa 0,0 l/m 0 min 0 min 124 W/m 22,5 km/h (4 Bft) 97,83 %
26.07.2020 18:20 23,6 C 22,8 C 21,7 C 64 % 1013,7 hPa 0,0 l/m 0 min 0 min 132 W/m 12,9 km/h (3 Bft) 95,74 %
26.07.2020 18:22 23,6 C 24,4 C 21,7 C 64 % 1013,7 hPa 0,0 l/m 2 min 0 min 248 W/m 12,9 km/h (3 Bft) 97,87 %
26.07.2020 18:24 23,6 C 23,9 C 22,2 C 64 % 1013,8 hPa 0,0 l/m 2 min 0 min 476 W/m 32,2 km/h (5 Bft) 97,87 %
26.07.2020 18:26 23,6 C 23,9 C 22,2 C 64 % 1013,7 hPa 0,0 l/m 2 min 0 min 412 W/m 12,9 km/h (3 Bft) 97,87 %
26.07.2020 18:28 23,6 C 23,9 C 22,2 C 64 % 1013,8 hPa 0,0 l/m 2 min 0 min 224 W/m 19,3 km/h (3 Bft) 97,83 %
26.07.2020 18:30 23,6 C 24,4 C 22,2 C 64 % 1013,8 hPa 0,0 l/m 2 min 0 min 454 W/m 16,1 km/h (3 Bft) 97,87 %
26.07.2020 18:32 23,6 C 25,0 C 22,2 C 64 % 1013,8 hPa 0,0 l/m 2 min 0 min 441 W/m 16,1 km/h (3 Bft) 95,74 %
26.07.2020 18:34 23,6 C 25,0 C 22,2 C 65 % 1013,8 hPa 0,0 l/m 2 min 0 min 421 W/m 19,3 km/h (3 Bft) 97,87 %
26.07.2020 18:36 23,7 C 25,0 C 22,2 C 64 % 1013,9 hPa 0,0 l/m 2 min 0 min 410 W/m 22,5 km/h (4 Bft) 100,00 %
26.07.2020 18:38 23,7 C 24,4 C 22,2 C 64 % 1013,7 hPa 0,0 l/m 2 min 0 min 378 W/m 22,5 km/h (4 Bft) 100,00 %
26.07.2020 18:40 23,7 C 24,4 C 22,2 C 64 % 1013,8 hPa 0,0 l/m 2 min 0 min 380 W/m 12,9 km/h (3 Bft) 100,00 %
26.07.2020 18:42 23,8 C 25,0 C 22,2 C 65 % 1013,7 hPa 0,0 l/m 2 min 0 min 411 W/m 9,7 km/h (2 Bft) 97,87 %
26.07.2020 18:44 23,8 C 24,4 C 22,2 C 63 % 1013,7 hPa 0,0 l/m 2 min 0 min 403 W/m 12,9 km/h (3 Bft) 100,00 %
26.07.2020 18:46 23,8 C 24,4 C 22,2 C 63 % 1013,8 hPa 0,0 l/m 2 min 0 min 395 W/m 19,3 km/h (3 Bft) 100,00 %
26.07.2020 18:48 23,8 C 24,4 C 22,2 C 63 % 1013,8 hPa 0,0 l/m 2 min 0 min 391 W/m 19,3 km/h (3 Bft) 100,00 %
26.07.2020 18:50 23,9 C 24,4 C 22,2 C 63 % 1013,7 hPa 0,0 l/m 2 min 0 min 376 W/m 9,7 km/h (2 Bft) 100,00 %
26.07.2020 18:52 23,9 C 24,4 C 22,2 C 63 % 1013,7 hPa 0,0 l/m 2 min 0 min 363 W/m 19,3 km/h (3 Bft) 100,00 %
26.07.2020 18:54 23,9 C 23,9 C 22,2 C 63 % 1013,8 hPa 0,0 l/m 2 min 0 min 341 W/m 16,1 km/h (3 Bft) 100,00 %
26.07.2020 18:56 23,9 C 23,9 C 21,7 C 63 % 1013,7 hPa 0,0 l/m 2 min 0 min 342 W/m 12,9 km/h (3 Bft) 100,00 %
26.07.2020 18:58 24,0 C 23,3 C 21,7 C 63 % 1013,7 hPa 0,0 l/m 2 min 0 min 234 W/m 9,7 km/h (2 Bft) 97,87 %
26.07.2020 19:00 24,0 C 22,8 C 21,7 C 64 % 1013,8 hPa 0,0 l/m 0 min 0 min 46 W/m 6,4 km/h (2 Bft) 97,87 %
26.07.2020 19:02 23,9 C 22,2 C 21,7 C 63 % 1013,9 hPa 0,0 l/m 0 min 0 min 39 W/m 12,9 km/h (3 Bft) 95,83 %
26.07.2020 19:04 23,9 C 21,7 C 21,1 C 62 % 1013,8 hPa 0,0 l/m 0 min 0 min 33 W/m 6,4 km/h (2 Bft) 93,62 %
26.07.2020 19:06 23,8 C 21,7 C 21,1 C 62 % 1013,9 hPa 0,0 l/m 0 min 0 min 33 W/m 16,1 km/h (3 Bft) 97,83 %
26.07.2020 19:08 23,8 C 21,1 C 21,1 C 63 % 1013,9 hPa 0,0 l/m 0 min 0 min 35 W/m 9,7 km/h (2 Bft) 95,74 %
26.07.2020 19:10 23,7 C 21,1 C 21,1 C 63 % 1013,9 hPa 0,0 l/m 0 min 0 min 45 W/m 6,4 km/h (2 Bft) 97,87 %
26.07.2020 19:12 23,6 C 21,1 C 20,6 C 64 % 1013,9 hPa 0,0 l/m 0 min 0 min 48 W/m 9,7 km/h (2 Bft) 97,87 %
26.07.2020 19:14 23,5 C 21,1 C 20,6 C 64 % 1013,8 hPa 0,0 l/m 0 min 0 min 40 W/m 6,4 km/h (2 Bft) 97,87 %
26.07.2020 19:16 23,4 C 21,1 C 20,6 C 64 % 1013,9 hPa 0,0 l/m 0 min 0 min 35 W/m 12,9 km/h (3 Bft) 95,74 %
26.07.2020 19:18 23,3 C 21,1 C 20,6 C 64 % 1013,9 hPa 0,0 l/m 0 min 0 min 35 W/m 9,7 km/h (2 Bft) 97,83 %
26.07.2020 19:20 23,2 C 21,1 C 20,6 C 64 % 1013,9 hPa 0,0 l/m 0 min 0 min 39 W/m 12,9 km/h (3 Bft) 97,87 %
26.07.2020 19:22 23,1 C 21,1 C 20,6 C 65 % 1013,9 hPa 0,0 l/m 0 min 0 min 44 W/m 3,2 km/h (1 Bft) 97,87 %
26.07.2020 19:24 23,1 C 21,1 C 20,6 C 65 % 1013,9 hPa 0,0 l/m 0 min 0 min 49 W/m 3,2 km/h (1 Bft) 97,87 %
26.07.2020 19:26 23,1 C 21,7 C 20,6 C 65 % 1013,9 hPa 0,0 l/m 0 min 0 min 79 W/m 6,4 km/h (2 Bft) 97,87 %
26.07.2020 19:28 23,0 C 21,7 C 20,6 C 66 % 1014,0 hPa 0,0 l/m 0 min 0 min 133 W/m 6,4 km/h (2 Bft) 97,83 %
26.07.2020 19:30 22,9 C 21,7 C 21,1 C 66 % 1014,0 hPa 0,0 l/m 2 min 0 min 160 W/m 3,2 km/h (1 Bft) 97,87 %
26.07.2020 19:32 22,9 C 22,2 C 21,1 C 66 % 1014,0 hPa 0,0 l/m 0 min 0 min 96 W/m 6,4 km/h (2 Bft) 95,83 %
26.07.2020 19:34 22,9 C 22,2 C 21,1 C 67 % 1014,0 hPa 0,0 l/m 0 min 0 min 86 W/m 6,4 km/h (2 Bft) 97,87 %
26.07.2020 19:36 22,8 C 22,2 C 21,1 C 66 % 1014,1 hPa 0,0 l/m 0 min 0 min 73 W/m 12,9 km/h (3 Bft) 97,87 %
26.07.2020 19:38 22,8 C 21,7 C 21,1 C 66 % 1014,1 hPa 0,0 l/m 0 min 0 min 57 W/m 12,9 km/h (3 Bft) 95,74 %
26.07.2020 19:40 22,7 C 21,7 C 21,1 C 66 % 1014,2 hPa 0,0 l/m 0 min 0 min 45 W/m 12,9 km/h (3 Bft) 95,65 %
26.07.2020 19:42 22,7 C 21,7 C 21,1 C 66 % 1014,2 hPa 0,0 l/m 0 min 0 min 38 W/m 9,7 km/h (2 Bft) 97,87 %
26.07.2020 19:44 22,7 C 21,1 C 21,1 C 66 % 1014,2 hPa 0,0 l/m 0 min 0 min 38 W/m 6,4 km/h (2 Bft) 95,74 %
26.07.2020 19:46 22,7 C 21,1 C 21,1 C 66 % 1014,2 hPa 0,0 l/m 0 min 0 min 42 W/m 6,4 km/h (2 Bft) 95,83 %
26.07.2020 19:48 22,6 C 21,7 C 20,6 C 66 % 1014,3 hPa 0,0 l/m 0 min 0 min 52 W/m 6,4 km/h (2 Bft) 95,74 %
26.07.2020 19:50 22,6 C 21,7 C 21,1 C 66 % 1014,3 hPa 0,0 l/m 0 min 0 min 62 W/m 19,3 km/h (3 Bft) 97,83 %
26.07.2020 19:52 22,6 C 21,7 C 21,1 C 66 % 1014,2 hPa 0,0 l/m 0 min 0 min 76 W/m 9,7 km/h (2 Bft) 97,87 %
26.07.2020 19:54 22,6 C 21,7 C 21,1 C 66 % 1014,2 hPa 0,0 l/m 0 min 0 min 80 W/m 9,7 km/h (2 Bft) 93,62 %
26.07.2020 19:56 22,5 C 21,7 C 21,1 C 67 % 1014,2 hPa 0,0 l/m 0 min 0 min 77 W/m 6,4 km/h (2 Bft) 95,74 %
26.07.2020 19:58 22,5 C 21,7 C 21,1 C 67 % 1014,4 hPa 0,0 l/m 0 min 0 min 74 W/m 12,9 km/h (3 Bft) 95,74 %
26.07.2020 20:00 22,4 C 21,7 C 21,1 C 67 % 1014,3 hPa 0,0 l/m 0 min 0 min 61 W/m 6,4 km/h (2 Bft) 97,87 %
26.07.2020 20:02 22,4 C 21,1 C 20,6 C 67 % 1014,3 hPa 0,0 l/m 0 min 0 min 51 W/m 9,7 km/h (2 Bft) 97,83 %
26.07.2020 20:04 22,4 C 21,1 C 20,6 C 67 % 1014,2 hPa 0,0 l/m 0 min 0 min 43 W/m 6,4 km/h (2 Bft) 95,74 %
26.07.2020 20:06 22,3 C 21,1 C 20,6 C 66 % 1014,2 hPa 0,0 l/m 0 min 0 min 39 W/m 6,4 km/h (2 Bft) 95,74 %
26.07.2020 20:08 22,3 C 21,1 C 20,6 C 67 % 1014,2 hPa 0,0 l/m 0 min 0 min 35 W/m 9,7 km/h (2 Bft) 97,87 %
26.07.2020 20:10 22,3 C 21,1 C 20,6 C 67 % 1014,3 hPa 0,0 l/m 0 min 0 min 31 W/m 12,9 km/h (3 Bft) 97,87 %
26.07.2020 20:12 22,3 C 20,6 C 20,6 C 67 % 1014,3 hPa 0,0 l/m 0 min 0 min 28 W/m 6,4 km/h (2 Bft) 95,74 %
26.07.2020 20:14 22,2 C 20,6 C 20,6 C 67 % 1014,3 hPa 0,0 l/m 0 min 0 min 26 W/m 6,4 km/h (2 Bft) 93,48 %
26.07.2020 20:16 22,2 C 20,6 C 20,0 C 67 % 1014,3 hPa 0,0 l/m 0 min 0 min 29 W/m 6,4 km/h (2 Bft) 95,74 %
26.07.2020 20:18 22,2 C 20,6 C 20,0 C 68 % 1014,4 hPa 0,0 l/m 0 min 0 min 35 W/m 12,9 km/h (3 Bft) 96,36 %
26.07.2020 20:20 22,2 C 20,6 C 20,0 C 68 % 1014,3 hPa 0,0 l/m 0 min 0 min 40 W/m 12,9 km/h (3 Bft) 97,87 %
26.07.2020 20:22 22,1 C 20,6 C 20,0 C 68 % 1014,4 hPa 0,0 l/m 0 min 0 min 42 W/m 16,1 km/h (3 Bft) 97,87 %
26.07.2020 20:24 22,1 C 20,6 C 20,6 C 68 % 1014,4 hPa 0,0 l/m 0 min 0 min 40 W/m 12,9 km/h (3 Bft) 97,83 %
26.07.2020 20:26 22,1 C 20,6 C 20,6 C 68 % 1014,4 hPa 0,0 l/m 0 min 0 min 38 W/m 16,1 km/h (3 Bft) 97,87 %
26.07.2020 20:28 22,0 C 20,6 C 20,6 C 68 % 1014,4 hPa 0,0 l/m 0 min 0 min 31 W/m 6,4 km/h (2 Bft) 95,74 %
26.07.2020 20:30 21,9 C 20,6 C 20,6 C 68 % 1014,4 hPa 0,0 l/m 0 min 0 min 26 W/m 6,4 km/h (2 Bft) 97,87 %
26.07.2020 20:32 21,9 C 20,6 C 20,0 C 68 % 1014,4 hPa 0,0 l/m 0 min 0 min 23 W/m 9,7 km/h (2 Bft) 97,92 %
26.07.2020 20:34 21,9 C 20,6 C 20,0 C 69 % 1014,4 hPa 0,0 l/m 0 min 0 min 19 W/m 3,2 km/h (1 Bft) 100,00 %
26.07.2020 20:36 21,9 C 20,6 C 20,0 C 69 % 1014,5 hPa 0,0 l/m 0 min 0 min 18 W/m 6,4 km/h (2 Bft) 95,65 %
26.07.2020 20:38 21,8 C 20,0 C 20,0 C 69 % 1014,5 hPa 0,0 l/m 0 min 0 min 17 W/m 3,2 km/h (1 Bft) 97,87 %
26.07.2020 20:40 21,8 C 20,0 C 20,0 C 69 % 1014,5 hPa 0,0 l/m 0 min 0 min 18 W/m 3,2 km/h (1 Bft) 97,87 %
26.07.2020 20:42 21,8 C 20,0 C 19,4 C 69 % 1014,5 hPa 0,0 l/m 0 min 0 min 20 W/m 3,2 km/h (1 Bft) 97,87 %
26.07.2020 20:44 21,8 C 20,0 C 19,4 C 69 % 1014,5 hPa 0,0 l/m 0 min 0 min 21 W/m 3,2 km/h (1 Bft) 97,87 %
26.07.2020 20:46 21,7 C 20,0 C 19,4 C 69 % 1014,5 hPa 0,0 l/m 0 min 0 min 21 W/m 3,2 km/h (1 Bft) 97,87 %
26.07.2020 20:48 21,7 C 20,0 C 19,4 C 69 % 1014,6 hPa 0,0 l/m 0 min 0 min 20 W/m 6,4 km/h (2 Bft) 97,83 %
26.07.2020 20:50 21,7 C 20,0 C 19,4 C 69 % 1014,6 hPa 0,0 l/m 0 min 0 min 18 W/m 6,4 km/h (2 Bft) 97,87 %
26.07.2020 20:52 21,6 C 20,0 C 19,4 C 70 % 1014,6 hPa 0,0 l/m 0 min 0 min 18 W/m 6,4 km/h (2 Bft) 100,00 %
26.07.2020 20:54 21,6 C 19,4 C 19,4 C 70 % 1014,6 hPa 0,0 l/m 0 min 0 min 19 W/m 6,4 km/h (2 Bft) 97,87 %
26.07.2020 20:56 21,6 C 20,0 C 19,4 C 70 % 1014,6 hPa 0,0 l/m 0 min 0 min 19 W/m 9,7 km/h (2 Bft) 97,87 %
26.07.2020 20:58 21,5 C 20,0 C 19,4 C 70 % 1014,6 hPa 0,0 l/m 0 min 0 min 18 W/m 6,4 km/h (2 Bft) 97,87 %
26.07.2020 21:00 21,4 C 20,0 C 19,4 C 71 % 1014,6 hPa 0,0 l/m 0 min 0 min 14 W/m 6,4 km/h (2 Bft) 97,87 %
26.07.2020 21:02 21,4 C 19,4 C 19,4 C 71 % 1014,6 hPa 0,0 l/m 0 min 0 min 12 W/m 6,4 km/h (2 Bft) 97,14 %
26.07.2020 21:04 21,3 C 19,4 C 19,4 C 71 % 1014,7 hPa 0,0 l/m 0 min 0 min 11 W/m 19,3 km/h (3 Bft) 97,87 %
26.07.2020 21:06 21,3 C 19,4 C 19,4 C 71 % 1014,7 hPa 0,0 l/m 0 min 0 min 9 W/m 12,9 km/h (3 Bft) 97,87 %
26.07.2020 21:08 21,3 C 19,4 C 19,4 C 71 % 1014,8 hPa 0,0 l/m 0 min 0 min 9 W/m 6,4 km/h (2 Bft) 97,87 %
26.07.2020 21:10 21,2 C 19,4 C 19,4 C 71 % 1014,8 hPa 0,0 l/m 0 min 0 min 9 W/m 6,4 km/h (2 Bft) 97,87 %
26.07.2020 21:12 21,2 C 19,4 C 19,4 C 71 % 1014,8 hPa 0,0 l/m 0 min 0 min 9 W/m 6,4 km/h (2 Bft) 95,74 %
26.07.2020 21:14 21,1 C 19,4 C 19,4 C 72 % 1014,9 hPa 0,0 l/m 0 min 0 min 7 W/m 9,7 km/h (2 Bft) 97,87 %
26.07.2020 21:16 21,1 C 19,4 C 19,4 C 72 % 1014,8 hPa 0,0 l/m 0 min 0 min 6 W/m 16,1 km/h (3 Bft) 97,92 %
26.07.2020 21:18 21,1 C 19,4 C 18,9 C 72 % 1014,8 hPa 0,0 l/m 0 min 0 min 5 W/m 6,4 km/h (2 Bft) 97,87 %
26.07.2020 21:20 21,0 C 19,4 C 18,9 C 72 % 1014,9 hPa 0,0 l/m 0 min 0 min 5 W/m 6,4 km/h (2 Bft) 95,74 %
26.07.2020 21:22 21,0 C 19,4 C 18,9 C 72 % 1014,9 hPa 0,0 l/m 0 min 0 min 5 W/m 6,4 km/h (2 Bft) 93,62 %
26.07.2020 21:24 20,9 C 19,4 C 18,9 C 72 % 1014,9 hPa 0,0 l/m 0 min 0 min 5 W/m 6,4 km/h (2 Bft) 97,83 %
26.07.2020 21:26 20,9 C 18,9 C 18,9 C 72 % 1014,9 hPa 0,0 l/m 0 min 0 min 3 W/m 6,4 km/h (2 Bft) 97,87 %
26.07.2020 21:28 20,9 C 18,9 C 18,9 C 72 % 1014,9 hPa 0,0 l/m 0 min 0 min 0 W/m 3,2 km/h (1 Bft) 97,87 %
26.07.2020 21:30 20,8 C 18,9 C 18,9 C 72 % 1014,9 hPa 0,0 l/m 0 min 0 min 0 W/m 6,4 km/h (2 Bft) 97,87 %
26.07.2020 21:32 20,8 C 18,9 C 18,9 C 72 % 1015,0 hPa 0,0 l/m 0 min 0 min 0 W/m 6,4 km/h (2 Bft) 97,87 %
26.07.2020 21:34 20,7 C 18,9 C 18,9 C 72 % 1014,9 hPa 0,0 l/m 0 min 0 min 0 W/m 3,2 km/h (1 Bft) 97,83 %
26.07.2020 21:36 20,7 C 18,9 C 18,3 C 72 % 1015,0 hPa 0,0 l/m 0 min 0 min 0 W/m 3,2 km/h (1 Bft) 97,87 %
26.07.2020 21:38 20,7 C 18,3 C 18,3 C 72 % 1015,0 hPa 0,0 l/m 0 min 0 min 0 W/m 3,2 km/h (1 Bft) 100,00 %
26.07.2020 21:40 20,6 C 18,3 C 18,3 C 72 % 1015,1 hPa 0,0 l/m 0 min 0 min 0 W/m 3,2 km/h (1 Bft) 97,87 %
26.07.2020 21:42 20,6 C 18,3 C 18,3 C 73 % 1015,1 hPa 0,0 l/m 0 min 0 min 0 W/m 3,2 km/h (1 Bft) 95,74 %
26.07.2020 21:44 20,6 C 18,3 C 18,3 C 73 % 1015,2 hPa 0,0 l/m 0 min 0 min 0 W/m 3,2 km/h (1 Bft) 100,00 %
26.07.2020 21:46 20,5 C 18,3 C 18,3 C 73 % 1015,2 hPa 0,0 l/m 0 min 0 min 0 W/m 6,4 km/h (2 Bft) 100,00 %
26.07.2020 21:48 20,4 C 17,8 C 17,8 C 73 % 1015,4 hPa 0,0 l/m 0 min 0 min 0 W/m 3,2 km/h (1 Bft) 100,00 %
26.07.2020 21:50 20,4 C 17,8 C 17,8 C 73 % 1015,5 hPa 0,0 l/m 0 min 0 min 0 W/m 3,2 km/h (1 Bft) 100,00 %
26.07.2020 21:52 20,4 C 17,8 C 17,8 C 74 % 1015,5 hPa 0,0 l/m 0 min 0 min 0 W/m 6,4 km/h (2 Bft) 100,00 %
26.07.2020 21:54 20,3 C 17,8 C 17,2 C 74 % 1015,6 hPa 0,0 l/m 0 min 0 min 0 W/m 3,2 km/h (1 Bft) 100,00 %
26.07.2020 21:56 20,3 C 17,8 C 17,2 C 74 % 1015,6 hPa 0,0 l/m 0 min 0 min 0 W/m 3,2 km/h (1 Bft) 100,00 %
26.07.2020 21:58 20,2 C 17,2 C 17,2 C 74 % 1015,6 hPa 0,0 l/m 0 min 0 min 0 W/m 0,0 km/h (0 Bft) 100,00 %
26.07.2020 22:00 20,2 C 17,2 C 17,2 C 75 % 1015,6 hPa 0,0 l/m 0 min 0 min 0 W/m 3,2 km/h (1 Bft) 100,00 %
26.07.2020 22:02 20,1 C 17,2 C 17,2 C 75 % 1015,6 hPa 0,0 l/m 0 min 0 min 0 W/m 3,2 km/h (1 Bft) 97,87 %
26.07.2020 22:04 20,1 C 17,2 C 16,7 C 75 % 1015,6 hPa 0,0 l/m 0 min 0 min 0 W/m 0,0 km/h (0 Bft) 100,00 %
26.07.2020 22:06 20,0 C 17,2 C 16,7 C 75 % 1015,6 hPa 0,0 l/m 0 min 0 min 0 W/m 0,0 km/h (0 Bft) 100,00 %
26.07.2020 22:08 19,9 C 17,2 C 16,7 C 75 % 1015,6 hPa 0,0 l/m 0 min 0 min 0 W/m 0,0 km/h (0 Bft) 100,00 %
26.07.2020 22:10 19,9 C 16,7 C 16,7 C 76 % 1015,6 hPa 0,0 l/m 0 min 0 min 0 W/m 0,0 km/h (0 Bft) 100,00 %
26.07.2020 22:12 19,8 C 16,7 C 16,7 C 76 % 1015,6 hPa 0,0 l/m 0 min 0 min 0 W/m 0,0 km/h (0 Bft) 100,00 %
26.07.2020 22:14 19,8 C 16,7 C 16,7 C 76 % 1015,6 hPa 0,0 l/m 0 min 0 min 0 W/m 0,0 km/h (0 Bft) 100,00 %
26.07.2020 22:16 19,7 C 16,7 C 16,7 C 76 % 1015,6 hPa 0,0 l/m 0 min 0 min 0 W/m 0,0 km/h (0 Bft) 97,87 %
26.07.2020 22:18 19,7 C 16,7 C 16,1 C 76 % 1015,7 hPa 0,0 l/m 0 min 0 min 0 W/m 0,0 km/h (0 Bft) 100,00 %
26.07.2020 22:20 19,6 C 16,7 C 16,1 C 77 % 1015,7 hPa 0,0 l/m 0 min 0 min 0 W/m 0,0 km/h (0 Bft) 100,00 %
26.07.2020 22:22 19,6 C 16,7 C 16,1 C 77 % 1015,6 hPa 0,0 l/m 0 min 0 min 0 W/m 0,0 km/h (0 Bft) 95,65 %
26.07.2020 22:24 19,5 C 16,7 C 16,1 C 77 % 1015,7 hPa 0,0 l/m 0 min 0 min 0 W/m 0,0 km/h (0 Bft) 100,00 %
26.07.2020 22:26 19,4 C 16,7 C 16,1 C 77 % 1015,7 hPa 0,0 l/m 0 min 0 min 0 W/m 0,0 km/h (0 Bft) 97,87 %
26.07.2020 22:28 19,4 C 16,7 C 16,1 C 78 % 1015,8 hPa 0,0 l/m 0 min 0 min 0 W/m 0,0 km/h (0 Bft) 97,87 %
26.07.2020 22:30 19,3 C 16,7 C 16,1 C 78 % 1015,8 hPa 0,0 l/m 0 min 0 min 0 W/m 0,0 km/h (0 Bft) 93,62 %
26.07.2020 22:32 19,2 C 16,7 C 16,1 C 78 % 1015,9 hPa 0,0 l/m 0 min 0 min 0 W/m 0,0 km/h (0 Bft) 93,62 %
26.07.2020 22:34 19,2 C 16,1 C 16,1 C 78 % 1015,9 hPa 0,0 l/m 0 min 0 min 0 W/m 0,0 km/h (0 Bft) 93,48 %
26.07.2020 22:36 19,2 C 16,1 C 16,1 C 78 % 1015,9 hPa 0,0 l/m 0 min 0 min 0 W/m 0,0 km/h (0 Bft) 95,74 %
26.07.2020 22:38 19,1 C 16,7 C 16,1 C 79 % 1016,0 hPa 0,0 l/m 0 min 0 min 0 W/m 0,0 km/h (0 Bft) 95,74 %
26.07.2020 22:40 19,1 C 16,7 C 16,1 C 79 % 1016,1 hPa 0,0 l/m 0 min 0 min 0 W/m 0,0 km/h (0 Bft) 95,74 %
26.07.2020 22:42 19,0 C 16,7 C 16,1 C 79 % 1016,1 hPa 0,0 l/m 0 min 0 min 0 W/m 0,0 km/h (0 Bft) 95,74 %
26.07.2020 22:44 18,9 C 16,1 C 16,1 C 79 % 1016,1 hPa 0,0 l/m 0 min 0 min 0 W/m 0,0 km/h (0 Bft) 95,74 %
26.07.2020 22:46 18,9 C 16,7 C 16,1 C 79 % 1016,1 hPa 0,0 l/m 0 min 0 min 0 W/m 0,0 km/h (0 Bft) 95,65 %
26.07.2020 22:48 18,8 C 16,7 C 16,1 C 79 % 1016,1 hPa 0,0 l/m 0 min 0 min 0 W/m 3,2 km/h (1 Bft) 95,74 %
26.07.2020 22:50 18,8 C 16,7 C 16,1 C 79 % 1016,0 hPa 0,0 l/m 0 min 0 min 0 W/m 3,2 km/h (1 Bft) 93,62 %
26.07.2020 22:52 18,8 C 16,7 C 16,1 C 79 % 1016,1 hPa 0,0 l/m 0 min 0 min 0 W/m 3,2 km/h (1 Bft) 95,74 %
26.07.2020 22:54 18,7 C 16,7 C 16,1 C 80 % 1016,1 hPa 0,0 l/m 0 min 0 min 0 W/m 0,0 km/h (0 Bft) 95,74 %
26.07.2020 22:56 18,7 C 16,1 C 15,6 C 80 % 1016,1 hPa 0,0 l/m 0 min 0 min 0 W/m 0,0 km/h (0 Bft) 95,65 %
26.07.2020 22:58 18,6 C 16,1 C 15,6 C 80 % 1016,1 hPa 0,0 l/m 0 min 0 min 0 W/m 0,0 km/h (0 Bft) 93,62 %
26.07.2020 23:00 18,6 C 15,6 C 15,6 C 81 % 1016,2 hPa 0,0 l/m 0 min 0 min 0 W/m 0,0 km/h (0 Bft) 91,49 %
26.07.2020 23:02 18,5 C 15,6 C 15,6 C 81 % 1016,2 hPa 0,0 l/m 0 min 0 min 0 W/m 0,0 km/h (0 Bft) 95,74 %
26.07.2020 23:04 18,4 C 15,6 C 15,0 C 81 % 1016,1 hPa 0,0 l/m 0 min 0 min 0 W/m 0,0 km/h (0 Bft) 93,62 %
26.07.2020 23:06 18,4 C 15,6 C 15,0 C 81 % 1016,2 hPa 0,0 l/m 0 min 0 min 0 W/m 0,0 km/h (0 Bft) 93,62 %
26.07.2020 23:08 18,3 C 15,6 C 15,0 C 82 % 1016,2 hPa 0,0 l/m 0 min 0 min 0 W/m 0,0 km/h (0 Bft) 91,30 %
26.07.2020 23:10 18,3 C 15,6 C 15,0 C 82 % 1016,2 hPa 0,0 l/m 0 min 0 min 0 W/m 0,0 km/h (0 Bft) 95,74 %
26.07.2020 23:12 18,2 C 15,6 C 15,0 C 82 % 1016,2 hPa 0,0 l/m 0 min 0 min 0 W/m 0,0 km/h (0 Bft) 97,87 %
26.07.2020 23:14 18,2 C 15,0 C 15,0 C 82 % 1016,2 hPa 0,0 l/m 0 min 0 min 0 W/m 0,0 km/h (0 Bft) 95,74 %
26.07.2020 23:16 18,1 C 15,0 C 15,0 C 83 % 1016,3 hPa 0,0 l/m 0 min 0 min 0 W/m 0,0 km/h (0 Bft) 93,62 %
26.07.2020 23:18 18,1 C 15,0 C 15,0 C 83 % 1016,3 hPa 0,0 l/m 0 min 0 min 0 W/m 0,0 km/h (0 Bft) 95,74 %
26.07.2020 23:20 18,0 C 15,0 C 15,0 C 83 % 1016,2 hPa 0,0 l/m 0 min 0 min 0 W/m 0,0 km/h (0 Bft) 95,65 %
26.07.2020 23:22 17,9 C 15,0 C 15,0 C 83 % 1016,2 hPa 0,0 l/m 0 min 0 min 0 W/m 0,0 km/h (0 Bft) 94,64 %
26.07.2020 23:24 17,9 C 15,0 C 15,0 C 83 % 1016,2 hPa 0,0 l/m 0 min 0 min 0 W/m 0,0 km/h (0 Bft) 95,74 %
26.07.2020 23:26 17,8 C 15,0 C 15,0 C 83 % 1016,3 hPa 0,0 l/m 0 min 0 min 0 W/m 0,0 km/h (0 Bft) 94,74 %
26.07.2020 23:28 17,8 C 15,0 C 15,0 C 83 % 1016,4 hPa 0,0 l/m 0 min 0 min 0 W/m 0,0 km/h (0 Bft) 95,74 %
26.07.2020 23:30 17,8 C 15,6 C 15,0 C 83 % 1016,4 hPa 0,0 l/m 0 min 0 min 0 W/m 3,2 km/h (1 Bft) 97,87 %
26.07.2020 23:32 17,7 C 15,6 C 15,0 C 83 % 1016,4 hPa 0,0 l/m 0 min 0 min 0 W/m 0,0 km/h (0 Bft) 98,08 %
26.07.2020 23:34 17,7 C 15,6 C 15,0 C 83 % 1016,4 hPa 0,0 l/m 0 min 0 min 0 W/m 0,0 km/h (0 Bft) 93,62 %
26.07.2020 23:36 17,6 C 15,6 C 15,0 C 83 % 1016,4 hPa 0,0 l/m 0 min 0 min 0 W/m 0,0 km/h (0 Bft) 95,74 %
26.07.2020 23:38 17,6 C 15,6 C 15,0 C 83 % 1016,4 hPa 0,0 l/m 0 min 0 min 0 W/m 0,0 km/h (0 Bft) 95,74 %
26.07.2020 23:40 17,6 C 15,6 C 15,0 C 83 % 1016,4 hPa 0,0 l/m 0 min 0 min 0 W/m 0,0 km/h (0 Bft) 97,87 %
26.07.2020 23:42 17,5 C 16,1 C 15,0 C 83 % 1016,4 hPa 0,0 l/m 0 min 0 min 0 W/m 3,2 km/h (1 Bft) 95,65 %
26.07.2020 23:44 17,5 C 16,1 C 15,0 C 84 % 1016,4 hPa 0,0 l/m 0 min 0 min 0 W/m 0,0 km/h (0 Bft) 93,62 %
26.07.2020 23:46 17,4 C 16,1 C 15,0 C 84 % 1016,5 hPa 0,0 l/m 0 min 0 min 0 W/m 0,0 km/h (0 Bft) 95,74 %
26.07.2020 23:48 17,4 C 16,1 C 15,0 C 84 % 1016,5 hPa 0,0 l/m 0 min 0 min 0 W/m 0,0 km/h (0 Bft) 95,74 %
26.07.2020 23:50 17,4 C 15,6 C 15,0 C 84 % 1016,5 hPa 0,0 l/m 0 min 0 min 0 W/m 3,2 km/h (1 Bft) 95,74 %
26.07.2020 23:52 17,4 C 15,6 C 15,0 C 84 % 1016,5 hPa 0,0 l/m 0 min 0 min 0 W/m 3,2 km/h (1 Bft) 95,74 %
26.07.2020 23:54 17,3 C 15,6 C 15,0 C 84 % 1016,4 hPa 0,0 l/m 0 min 0 min 0 W/m 3,2 km/h (1 Bft) 97,87 %
26.07.2020 23:56 17,3 C 15,6 C 15,0 C 85 % 1016,4 hPa 0,0 l/m 0 min 0 min 0 W/m 0,0 km/h (0 Bft) 97,83 %
26.07.2020 23:58 17,3 C 16,1 C 15,0 C 85 % 1016,4 hPa 0,0 l/m 0 min 0 min 0 W/m 0,0 km/h (0 Bft) 93,62 %
_ Min-Zeit 07:36 23:14 23:04 13:38 06:10 - - - - 00:00 07:32
Minimum _ 17,0 C 15,0 C 15,0 C 59 % 1007,0 hPa - - - - 0,0 km/h (0 Bft) 51,22 %
_ Max-Zeit 13:52 12:40 13:56 06:42 23:46 01:02 12:08 00:18 12:12 14:40 00:22
Maximum _ 25,1 C 30,0 C 26,7 C 99 % 1016,5 hPa 0,8 l/m 4 min 2 min 1081 W/m 38,6 km/h
O (5 Bft)
100,00 %
Durchschnitt _ 20,6 C 20,4 C 19,2 C 80 % 1011,0 hPa #5,8 l/m #6:34 h #3:50 h 366 W/m 10,5 km/h (2 Bft) 97,33 %
© 2020 W. Hausmann